| time (UTC) | temp C | wind direction | speed KPH | gust KPH | rain 1hr cm | rain 24hr cm | rain mn cm | humidity % | barometer mb |
| 20260903043932 | 27 | 285 | 0.0 | 0.0 | 0.00 | 0.00 | 0.00 | 81 | 1009.7 |
| 20260903043830 | 27 | 285 | 0.0 | 0.0 | 0.00 | 0.00 | 0.00 | 81 | 1009.7 |
| 20260903043725 | 27 | 285 | 0.0 | 0.0 | 0.00 | 0.00 | 0.00 | 81 | 1009.7 |
| 20260903043617 | 27 | 285 | 0.0 | 0.0 | 0.00 | 0.00 | 0.00 | 80 | 1009.7 |
| 20260903043249 | 27 | 285 | 0.0 | 0.0 | 0.00 | 0.00 | 0.00 | 80 | 1009.7 |
| 20260903042922 | 27 | 285 | 0.0 | 0.0 | 0.00 | 0.00 | 0.00 | 80 | 1009.7 |
| 20260903042817 | 27 | 286 | 0.0 | 0.0 | 0.00 | 0.00 | 0.00 | 80 | 1009.7 |
| 20260903042709 | 27 | 286 | 0.0 | 0.0 | 0.00 | 0.00 | 0.00 | 80 | 1009.7 |
| 20260903042121 | 27 | 286 | 0.0 | 0.0 | 0.00 | 0.00 | 0.00 | 80 | 1009.7 |
| 20260903042019 | 27 | 286 | 0.0 | 0.0 | 0.00 | 0.00 | 0.00 | 80 | 1009.7 |
| 20260903041917 | 27 | 286 | 0.0 | 0.0 | 0.00 | 0.00 | 0.00 | 80 | 1009.7 |
| 20260903041812 | 27 | 286 | 0.0 | 0.0 | 0.00 | 0.00 | 0.00 | 80 | 1009.7 |
| 20260903041708 | 27 | 286 | 0.0 | 0.0 | 0.00 | 0.00 | 0.00 | 80 | 1009.7 |
| 20260903041346 | 27 | 288 | 0.0 | 0.0 | 0.00 | 0.00 | 0.00 | 80 | 1009.7 |
| 20260903041239 | 27 | 288 | 0.0 | 0.0 | 0.00 | 0.00 | 0.00 | 79 | 1009.7 |
| 20260903041137 | 27 | 289 | 0.0 | 0.0 | 0.00 | 0.00 | 0.00 | 79 | 1009.7 |
| 20260903041034 | 27 | 290 | 0.0 | 0.0 | 0.00 | 0.00 | 0.00 | 80 | 1009.7 |
| 20260903040928 | 27 | 290 | 0.0 | 0.0 | 0.00 | 0.00 | 0.00 | 80 | 1009.7 |
| 20260903040825 | 27 | 290 | 0.0 | 0.0 | 0.00 | 0.00 | 0.00 | 79 | 1009.6 |
| 20260903040720 | 27 | 290 | 0.0 | 0.0 | 0.00 | 0.00 | 0.00 | 79 | 1009.6 |
| 20260903040617 | 27 | 290 | 0.0 | 0.0 | 0.00 | 0.00 | 0.00 | 79 | 1009.6 |
| 20260903040515 | 27 | 207 | 0.0 | 0.0 | 0.00 | 0.00 | 0.00 | 79 | 1009.6 |
| 20260903040412 | 27 | 273 | 0.0 | 0.0 | 0.00 | 0.00 | 0.00 | 79 | 1009.6 |
| 20260903040305 | 27 | 273 | 0.0 | 0.0 | 0.00 | 0.00 | 0.00 | 79 | 1009.5 |
| 20260903040159 | 27 | 273 | 0.0 | 0.0 | 0.00 | 0.00 | 0.00 | 80 | 1009.6 |
| 20260903040052 | 27 | 275 | 0.0 | 0.0 | 0.00 | 0.00 | 0.00 | 80 | 1009.6 |
| 20260903035948 | 27 | 275 | 0.0 | 0.0 | 0.00 | 0.00 | 0.00 | 80 | 1009.5 |
| 20260903035843 | 27 | 278 | 0.0 | 0.0 | 0.00 | 0.00 | 0.00 | 80 | 1009.6 |
| 20260903035737 | 27 | 277 | 0.0 | 0.0 | 0.00 | 0.00 | 0.00 | 80 | 1009.6 |
| 20260903035631 | 27 | 279 | 0.0 | 0.0 | 0.00 | 0.00 | 0.00 | 79 | 1009.5 |
| 20260903035527 | 27 | 267 | 0.0 | 0.0 | 0.00 | 0.00 | 0.00 | 79 | 1009.5 |
| 20260903035421 | 27 | 259 | 0.0 | 0.0 | 0.00 | 0.00 | 0.00 | 79 | 1009.5 |
| 20260903035316 | 27 | 266 | 0.0 | 0.0 | 0.00 | 0.00 | 0.00 | 79 | 1009.5 |
| 20260903035213 | 27 | 266 | 0.0 | 0.0 | 0.00 | 0.00 | 0.00 | 79 | 1009.5 |
| 20260903035109 | 27 | 266 | 0.0 | 0.0 | 0.00 | 0.00 | 0.00 | 79 | 1009.5 |
| 20260903034743 | 27 | 269 | 0.0 | 0.0 | 0.00 | 0.00 | 0.00 | 79 | 1009.3 |
| 20260903034641 | 27 | 269 | 0.0 | 0.0 | 0.00 | 0.00 | 0.00 | 79 | 1009.3 |
| 20260903034534 | 27 | 269 | 0.0 | 0.0 | 0.00 | 0.00 | 0.00 | 79 | 1009.3 |
| 20260903034428 | 27 | 270 | 0.0 | 0.0 | 0.00 | 0.00 | 0.00 | 79 | 1009.3 |
| 20260903034321 | 27 | 270 | 0.0 | 6.4 | 0.00 | 0.00 | 0.00 | 79 | 1009.3 |
| 20260903034216 | 27 | 273 | 0.0 | 6.4 | 0.00 | 0.00 | 0.00 | 79 | 1009.2 |
| 20260903034110 | 27 | 259 | 0.0 | 4.8 | 0.00 | 0.00 | 0.00 | 79 | 1009.2 |
| 20260903034003 | 27 | 263 | 0.0 | 0.0 | 0.00 | 0.00 | 0.00 | 79 | 1009.2 |
| 20260903033900 | 27 | 263 | 0.0 | 0.0 | 0.00 | 0.00 | 0.00 | 79 | 1009.2 |
| 20260903033758 | 27 | 263 | 0.0 | 0.0 | 0.00 | 0.00 | 0.00 | 79 | 1009.1 |
| 20260903033651 | 27 | 263 | 0.0 | 0.0 | 0.00 | 0.00 | 0.00 | 79 | 1009.1 |
| 20260903033549 | 27 | 263 | 0.0 | 0.0 | 0.00 | 0.00 | 0.00 | 79 | 1009.1 |
| 20260903033442 | 27 | 234 | 0.0 | 12.9 | 0.00 | 0.00 | 0.00 | 79 | 1009.1 |
| 20260903033337 | 27 | 248 | 0.0 | 12.9 | 0.00 | 0.00 | 0.00 | 79 | 1009.1 |
| 20260903033234 | 27 | 277 | 0.0 | 12.9 | 0.00 | 0.00 | 0.00 | 79 | 1009.0 |
| 20260903033127 | 27 | 238 | 0.0 | 1.6 | 0.00 | 0.00 | 0.00 | 79 | 1009.1 |
| 20260903033021 | 27 | 244 | 0.0 | 0.0 | 0.00 | 0.00 | 0.00 | 79 | 1009.0 |
| 20260903032914 | 27 | 236 | 0.0 | 0.0 | 0.00 | 0.00 | 0.00 | 79 | 1009.1 |
| 20260903032806 | 27 | 236 | 0.0 | 0.0 | 0.00 | 0.00 | 0.00 | 79 | 1009.0 |
| 20260903032442 | 27 | 206 | 0.0 | 8.0 | 0.00 | 0.00 | 0.00 | 79 | 1009.0 |
| 20260903032336 | 27 | 235 | 0.0 | 8.0 | 0.00 | 0.00 | 0.00 | 79 | 1009.0 |
| 20260903032228 | 27 | 231 | 0.0 | 8.0 | 0.00 | 0.00 | 0.00 | 79 | 1009.1 |
| 20260903032126 | 27 | 218 | 0.0 | 8.0 | 0.00 | 0.00 | 0.00 | 80 | 1009.1 |
| 20260903032024 | 27 | 219 | 0.0 | 8.0 | 0.00 | 0.00 | 0.00 | 80 | 1009.0 |
| 20260903031920 | 27 | 220 | 0.0 | 8.0 | 0.00 | 0.00 | 0.00 | 80 | 1009.0 |
| 20260903031816 | 27 | 244 | 0.0 | 6.4 | 0.00 | 0.00 | 0.00 | 80 | 1009.0 |
| 20260903031452 | 27 | 254 | 0.0 | 0.0 | 0.00 | 0.00 | 0.00 | 80 | 1009.0 |
| 20260903031347 | 27 | 202 | 0.0 | 0.0 | 0.00 | 0.00 | 0.00 | 80 | 1009.0 |
| 20260903031242 | 27 | 221 | 0.0 | 0.0 | 0.00 | 0.00 | 0.00 | 80 | 1009.0 |
| 20260903031140 | 27 | 202 | 0.0 | 0.0 | 0.00 | 0.00 | 0.00 | 80 | 1009.1 |
| 20260903031033 | 27 | 223 | 0.0 | 0.0 | 0.00 | 0.00 | 0.00 | 80 | 1009.0 |
| 20260903030927 | 27 | 229 | 0.0 | 0.0 | 0.00 | 0.00 | 0.00 | 80 | 1009.0 |
| 20260903030823 | 27 | 229 | 0.0 | 0.0 | 0.00 | 0.00 | 0.00 | 80 | 1009.0 |
| 20260903030721 | 27 | 229 | 0.0 | 0.0 | 0.00 | 0.00 | 0.00 | 80 | 1009.1 |
| 20260903030613 | 27 | 251 | 0.0 | 0.0 | 0.00 | 0.00 | 0.00 | 80 | 1009.0 |
| 20260903030508 | 27 | 218 | 0.0 | 0.0 | 0.00 | 0.00 | 0.00 | 80 | 1009.0 |
| 20260903030401 | 27 | 202 | 0.0 | 0.0 | 0.00 | 0.00 | 0.00 | 80 | 1009.0 |
| 20260903030254 | 27 | 212 | 0.0 | 0.0 | 0.00 | 0.00 | 0.00 | 80 | 1009.0 |
| 20260903030149 | 27 | 202 | 0.0 | 0.0 | 0.00 | 0.00 | 0.00 | 80 | 1009.0 |
| 20260903030047 | 27 | 202 | 0.0 | 0.0 | 0.00 | 0.00 | 0.00 | 80 | 1009.0 |
| 20260903025940 | 27 | 192 | 0.0 | 0.0 | 0.00 | 0.00 | 0.00 | 80 | 1009.0 |
| 20260903025833 | 27 | 190 | 0.0 | 0.0 | 0.00 | 0.00 | 0.00 | 80 | 1009.0 |
| 20260903025726 | 27 | 263 | 0.0 | 0.0 | 0.00 | 0.00 | 0.00 | 81 | 1009.0 |
| 20260903025624 | 27 | 263 | 0.0 | 0.0 | 0.00 | 0.00 | 0.00 | 81 | 1009.1 |
| 20260903025520 | 27 | 260 | 0.0 | 0.0 | 0.00 | 0.00 | 0.00 | 81 | 1009.0 |
| 20260903025413 | 27 | 217 | 0.0 | 0.0 | 0.00 | 0.00 | 0.00 | 81 | 1009.1 |
| 20260903025308 | 27 | 217 | 0.0 | 0.0 | 0.00 | 0.00 | 0.00 | 81 | 1009.1 |
| 20260903025205 | 27 | 216 | 0.0 | 0.0 | 0.00 | 0.00 | 0.00 | 81 | 1009.1 |
| 20260903025058 | 27 | 240 | 0.0 | 0.0 | 0.00 | 0.00 | 0.00 | 81 | 1009.1 |
| 20260903024950 | 27 | 240 | 0.0 | 0.0 | 0.00 | 0.00 | 0.00 | 81 | 1009.1 |
| 20260903024627 | 27 | 180 | 0.0 | 0.0 | 0.00 | 0.00 | 0.00 | 82 | 1009.1 |
| 20260903024524 | 27 | 207 | 0.0 | 0.0 | 0.00 | 0.00 | 0.00 | 82 | 1009.1 |
| 20260903024420 | 27 | 209 | 0.0 | 0.0 | 0.00 | 0.00 | 0.00 | 82 | 1009.0 |
| 20260903024317 | 26 | 248 | 0.0 | 0.0 | 0.00 | 0.00 | 0.00 | 82 | 1009.0 |
| 20260903024212 | 26 | 250 | 0.0 | 0.0 | 0.00 | 0.00 | 0.00 | 82 | 1009.0 |
| 20260903023849 | 26 | 246 | 0.0 | 0.0 | 0.00 | 0.00 | 0.00 | 83 | 1008.9 |
| 20260903023743 | 26 | 246 | 0.0 | 0.0 | 0.00 | 0.00 | 0.00 | 83 | 1008.8 |
| 20260903023640 | 26 | 215 | 0.0 | 0.0 | 0.00 | 0.00 | 0.00 | 83 | 1008.8 |
| 20260903023535 | 26 | 175 | 0.0 | 0.0 | 0.00 | 0.00 | 0.00 | 83 | 1008.8 |
| 20260903023428 | 26 | 175 | 0.0 | 0.0 | 0.00 | 0.00 | 0.00 | 83 | 1008.8 |
| 20260903023326 | 26 | 175 | 0.0 | 0.0 | 0.00 | 0.00 | 0.00 | 84 | 1008.8 |
| 20260903023219 | 26 | 175 | 0.0 | 0.0 | 0.00 | 0.00 | 0.00 | 84 | 1008.8 |
| 20260903023112 | 26 | 176 | 0.0 | 0.0 | 0.00 | 0.00 | 0.00 | 84 | 1008.9 |
| 20260903023006 | 26 | 207 | 0.0 | 0.0 | 0.00 | 0.00 | 0.00 | 84 | 1008.9 |
| 20260903022903 | 26 | 207 | 0.0 | 0.0 | 0.00 | 0.00 | 0.00 | 84 | 1008.9 |
| 20260903022758 | 26 | 206 | 0.0 | 0.0 | 0.00 | 0.00 | 0.00 | 84 | 1009.0 |
| 20260903022429 | 26 | 200 | 0.0 | 0.0 | 0.00 | 0.00 | 0.00 | 84 | 1009.1 |
| 20260903022327 | 26 | 200 | 0.0 | 0.0 | 0.00 | 0.00 | 0.00 | 84 | 1009.1 |
| 20260903022224 | 26 | 200 | 0.0 | 0.0 | 0.00 | 0.00 | 0.00 | 84 | 1009.1 |
| 20260903021900 | 26 | 200 | 0.0 | 0.0 | 0.00 | 0.00 | 0.00 | 84 | 1009.3 |
| 20260903021752 | 26 | 200 | 0.0 | 0.0 | 0.00 | 0.00 | 0.00 | 84 | 1009.3 |
| 20260903021645 | 26 | 200 | 0.0 | 0.0 | 0.00 | 0.00 | 0.00 | 84 | 1009.3 |
| 20260903021540 | 26 | 200 | 0.0 | 0.0 | 0.00 | 0.00 | 0.00 | 84 | 1009.4 |
| 20260903021433 | 26 | 200 | 0.0 | 0.0 | 0.00 | 0.00 | 0.00 | 84 | 1009.4 |
| 20260903021326 | 26 | 200 | 0.0 | 0.0 | 0.00 | 0.00 | 0.00 | 84 | 1009.4 |
| 20260903021223 | 26 | 200 | 0.0 | 0.0 | 0.00 | 0.00 | 0.00 | 84 | 1009.5 |
| 20260903021119 | 26 | 200 | 0.0 | 0.0 | 0.00 | 0.00 | 0.00 | 84 | 1009.5 |
| 20260903020536 | 26 | 200 | 0.0 | 0.0 | 0.00 | 0.00 | 0.00 | 83 | 1009.7 |
| 20260903020430 | 26 | 200 | 0.0 | 0.0 | 0.00 | 0.00 | 0.00 | 83 | 1009.6 |
| 20260903020109 | 26 | 200 | 0.0 | 0.0 | 0.00 | 0.00 | 0.00 | 83 | 1009.7 |
| 20260903015743 | 26 | 200 | 0.0 | 0.0 | 0.00 | 0.00 | 0.00 | 83 | 1009.7 |
| 20260903015636 | 26 | 200 | 0.0 | 0.0 | 0.00 | 0.00 | 0.00 | 83 | 1009.6 |
| 20260903015532 | 26 | 200 | 0.0 | 0.0 | 0.00 | 0.00 | 0.00 | 83 | 1009.7 |
| 20260903015424 | 26 | 200 | 0.0 | 0.0 | 0.00 | 0.00 | 0.00 | 83 | 1009.6 |
| 20260903015317 | 26 | 200 | 0.0 | 0.0 | 0.00 | 0.00 | 0.00 | 82 | 1009.7 |
| 20260903014955 | 26 | 200 | 0.0 | 0.0 | 0.00 | 0.00 | 0.00 | 82 | 1009.6 |
| 20260903014850 | 26 | 200 | 0.0 | 0.0 | 0.00 | 0.00 | 0.00 | 82 | 1009.6 |
| 20260903014743 | 26 | 200 | 0.0 | 0.0 | 0.00 | 0.00 | 0.00 | 82 | 1009.6 |
| 20260903014635 | 26 | 200 | 0.0 | 0.0 | 0.00 | 0.00 | 0.00 | 82 | 1009.5 |
| 20260903014530 | 26 | 200 | 0.0 | 0.0 | 0.00 | 0.00 | 0.00 | 82 | 1009.5 |
| 20260903014426 | 26 | 200 | 0.0 | 0.0 | 0.00 | 0.00 | 0.00 | 82 | 1009.5 |
| 20260903014324 | 26 | 200 | 0.0 | 0.0 | 0.00 | 0.00 | 0.00 | 82 | 1009.5 |
| 20260903014217 | 26 | 200 | 0.0 | 0.0 | 0.00 | 0.00 | 0.00 | 82 | 1009.5 |
| 20260903014115 | 26 | 200 | 0.0 | 0.0 | 0.00 | 0.00 | 0.00 | 81 | 1009.6 |
| 20260903014012 | 26 | 200 | 0.0 | 0.0 | 0.00 | 0.00 | 0.00 | 81 | 1009.5 |
| 20260903013647 | 26 | 200 | 0.0 | 0.0 | 0.00 | 0.00 | 0.00 | 81 | 1009.5 |
| 20260903013544 | 26 | 200 | 0.0 | 0.0 | 0.00 | 0.00 | 0.00 | 81 | 1009.5 |
| 20260903013439 | 26 | 200 | 0.0 | 0.0 | 0.00 | 0.00 | 0.00 | 81 | 1009.5 |
| 20260903013336 | 26 | 200 | 0.0 | 0.0 | 0.00 | 0.00 | 0.00 | 81 | 1009.6 |
| 20260903013232 | 26 | 200 | 0.0 | 0.0 | 0.00 | 0.00 | 0.00 | 81 | 1009.5 |
| 20260903012907 | 26 | 200 | 0.0 | 0.0 | 0.00 | 0.00 | 0.00 | 81 | 1009.5 |
| 20260903012801 | 26 | 200 | 0.0 | 0.0 | 0.00 | 0.00 | 0.00 | 81 | 1009.5 |
| 20260903012432 | 26 | 200 | 0.0 | 0.0 | 0.00 | 0.00 | 0.00 | 81 | 1009.5 |
| 20260903011626 | 27 | 200 | 0.0 | 0.0 | 0.00 | 0.00 | 0.00 | 80 | 1009.5 |
| 20260903011522 | 27 | 200 | 0.0 | 0.0 | 0.00 | 0.00 | 0.00 | 80 | 1009.5 |
| 20260903011156 | 27 | 200 | 0.0 | 0.0 | 0.00 | 0.00 | 0.00 | 79 | 1009.4 |
| 20260903010829 | 27 | 200 | 0.0 | 0.0 | 0.00 | 0.00 | 0.00 | 79 | 1009.4 |
| 20260903010724 | 27 | 200 | 0.0 | 0.0 | 0.00 | 0.00 | 0.00 | 79 | 1009.4 |
| 20260903010358 | 27 | 200 | 0.0 | 0.0 | 0.00 | 0.00 | 0.00 | 78 | 1009.4 |
| 20260903010254 | 27 | 200 | 0.0 | 0.0 | 0.00 | 0.00 | 0.00 | 78 | 1009.3 |
| 20260903010149 | 27 | 200 | 0.0 | 0.0 | 0.00 | 0.00 | 0.00 | 78 | 1009.3 |
| 20260903010045 | 27 | 200 | 0.0 | 0.0 | 0.00 | 0.00 | 0.00 | 78 | 1009.3 |
| 20260903005939 | 27 | 200 | 0.0 | 0.0 | 0.00 | 0.00 | 0.00 | 77 | 1009.3 |
| 20260903005616 | 27 | 200 | 0.0 | 0.0 | 0.00 | 0.00 | 0.00 | 77 | 1009.3 |
| 20260903005513 | 27 | 200 | 0.0 | 0.0 | 0.00 | 0.00 | 0.00 | 76 | 1009.2 |
| 20260903005407 | 27 | 200 | 0.0 | 0.0 | 0.00 | 0.00 | 0.00 | 76 | 1009.2 |
| 20260903005306 | 27 | 200 | 0.0 | 0.0 | 0.00 | 0.00 | 0.00 | 76 | 1009.2 |
| 20260903004937 | 28 | 200 | 0.0 | 0.0 | 0.00 | 0.00 | 0.00 | 75 | 1009.2 |
| 20260903004834 | 28 | 200 | 0.0 | 0.0 | 0.00 | 0.00 | 0.00 | 75 | 1009.2 |
| 20260903004506 | 28 | 200 | 0.0 | 0.0 | 0.00 | 0.00 | 0.00 | 74 | 1009.1 |
| 20260903004403 | 28 | 200 | 0.0 | 0.0 | 0.00 | 0.00 | 0.00 | 74 | 1009.1 |
| 20260903004039 | 28 | 200 | 0.0 | 0.0 | 0.00 | 0.00 | 0.00 | 73 | 1009.1 |
| 20260903003711 | 28 | 200 | 0.0 | 0.0 | 0.00 | 0.00 | 0.00 | 73 | 1009.1 |
| 20260903003608 | 28 | 200 | 0.0 | 0.0 | 0.00 | 0.00 | 0.00 | 73 | 1009.0 |
| 20260903003506 | 28 | 200 | 0.0 | 0.0 | 0.00 | 0.00 | 0.00 | 73 | 1009.0 |
| 20260903003403 | 28 | 200 | 0.0 | 0.0 | 0.00 | 0.00 | 0.00 | 72 | 1009.0 |
| 20260903003257 | 28 | 200 | 0.0 | 0.0 | 0.00 | 0.00 | 0.00 | 72 | 1008.9 |
| 20260903003152 | 28 | 200 | 0.0 | 0.0 | 0.00 | 0.00 | 0.00 | 72 | 1008.9 |
| 20260903003047 | 28 | 200 | 0.0 | 0.0 | 0.00 | 0.00 | 0.00 | 72 | 1008.9 |
| 20260903002942 | 28 | 200 | 0.0 | 0.0 | 0.00 | 0.00 | 0.00 | 71 | 1008.9 |
| 20260903002838 | 29 | 200 | 0.0 | 0.0 | 0.00 | 0.00 | 0.00 | 71 | 1008.8 |
| 20260903002256 | 29 | 200 | 0.0 | 0.0 | 0.00 | 0.00 | 0.00 | 70 | 1008.8 |
| 20260903002151 | 29 | 200 | 0.0 | 0.0 | 0.00 | 0.00 | 0.00 | 70 | 1008.8 |
| 20260903002045 | 29 | 200 | 0.0 | 0.0 | 0.00 | 0.00 | 0.00 | 70 | 1008.8 |
| 20260903001941 | 29 | 200 | 0.0 | 0.0 | 0.00 | 0.00 | 0.00 | 70 | 1008.8 |
| 20260903001835 | 29 | 200 | 0.0 | 0.0 | 0.00 | 0.00 | 0.00 | 70 | 1008.8 |
| 20260903001512 | 30 | 200 | 0.0 | 0.0 | 0.00 | 0.00 | 0.00 | 70 | 1008.9 |
| 20260903001411 | 30 | 200 | 0.0 | 0.0 | 0.00 | 0.00 | 0.00 | 69 | 1008.9 |
| 20260903001304 | 30 | 200 | 0.0 | 0.0 | 0.00 | 0.00 | 0.00 | 69 | 1008.8 |
| 20260903001159 | 30 | 200 | 0.0 | 0.0 | 0.00 | 0.00 | 0.00 | 69 | 1008.8 |
| 20260903001057 | 30 | 200 | 0.0 | 0.0 | 0.00 | 0.00 | 0.00 | 68 | 1008.8 |
| 20260903000953 | 30 | 200 | 0.0 | 0.0 | 0.00 | 0.00 | 0.00 | 69 | 1008.8 |
| 20260903000850 | 30 | 200 | 0.0 | 0.0 | 0.00 | 0.00 | 0.00 | 68 | 1008.9 |
| 20260903000746 | 30 | 200 | 0.0 | 0.0 | 0.00 | 0.00 | 0.00 | 68 | 1008.9 |
| 20260903000417 | 30 | 200 | 0.0 | 0.0 | 0.00 | 0.00 | 0.00 | 67 | 1008.9 |
| 20260903000052 | 30 | 213 | 0.0 | 0.0 | 0.00 | 0.00 | 0.00 | 67 | 1009.0 |
| 20260902235950 | 30 | 213 | 0.0 | 0.0 | 0.00 | 0.00 | 0.00 | 67 | 1008.9 |
| 20260902235626 | 30 | 213 | 0.0 | 0.0 | 0.00 | 0.00 | 0.00 | 66 | 1009.0 |
| 20260902235520 | 31 | 213 | 0.0 | 0.0 | 0.00 | 0.00 | 0.00 | 66 | 1009.0 |
| 20260902235418 | 31 | 213 | 0.0 | 0.0 | 0.00 | 0.00 | 0.00 | 66 | 1009.0 |
| 20260902235315 | 31 | 213 | 0.0 | 0.0 | 0.00 | 0.00 | 0.00 | 66 | 1009.0 |
| 20260902235209 | 31 | 213 | 0.0 | 0.0 | 0.00 | 0.00 | 0.00 | 66 | 1009.0 |
| 20260902234628 | 31 | 215 | 0.0 | 0.0 | 0.00 | 0.00 | 0.00 | 65 | 1008.9 |
| 20260902234300 | 31 | 216 | 0.0 | 0.0 | 0.00 | 0.00 | 0.00 | 65 | 1009.0 |
| 20260902234153 | 31 | 216 | 0.0 | 0.0 | 0.00 | 0.00 | 0.00 | 64 | 1008.9 |
| 20260902234049 | 31 | 216 | 0.0 | 0.0 | 0.00 | 0.00 | 0.00 | 64 | 1008.9 |
| 20260902233725 | 31 | 216 | 0.0 | 0.0 | 0.00 | 0.00 | 0.00 | 64 | 1008.9 |
| 20260902233618 | 31 | 216 | 0.0 | 0.0 | 0.00 | 0.00 | 0.00 | 64 | 1008.9 |
| 20260902233515 | 31 | 216 | 0.0 | 0.0 | 0.00 | 0.00 | 0.00 | 64 | 1009.0 |
| 20260902233413 | 31 | 216 | 0.0 | 0.0 | 0.00 | 0.00 | 0.00 | 64 | 1008.9 |
| 20260902233309 | 31 | 217 | 0.0 | 0.0 | 0.00 | 0.00 | 0.00 | 64 | 1008.9 |
| 20260902233206 | 31 | 217 | 0.0 | 0.0 | 0.00 | 0.00 | 0.00 | 63 | 1008.9 |
| 20260902233103 | 31 | 217 | 0.0 | 0.0 | 0.00 | 0.00 | 0.00 | 63 | 1008.9 |
| 20260902233001 | 32 | 217 | 0.0 | 0.0 | 0.00 | 0.00 | 0.00 | 63 | 1008.9 |
| 20260902232637 | 32 | 220 | 0.0 | 0.0 | 0.00 | 0.00 | 0.00 | 63 | 1008.9 |
| 20260902232534 | 32 | 221 | 0.0 | 1.6 | 0.00 | 0.00 | 0.00 | 63 | 1008.9 |
| 20260902232429 | 32 | 223 | 0.0 | 1.6 | 0.00 | 0.00 | 0.00 | 63 | 1008.9 |
| 20260902232322 | 32 | 227 | 0.0 | 1.6 | 0.00 | 0.00 | 0.00 | 63 | 1008.9 |
| 20260902231736 | 32 | 194 | 0.0 | 0.0 | 0.00 | 0.00 | 0.00 | 63 | 1008.9 |
| 20260902231633 | 32 | 194 | 0.0 | 0.0 | 0.00 | 0.00 | 0.00 | 63 | 1008.9 |
| 20260902231528 | 32 | 194 | 0.0 | 0.0 | 0.00 | 0.00 | 0.00 | 62 | 1009.0 |
| 20260902231423 | 32 | 194 | 0.0 | 4.8 | 0.00 | 0.00 | 0.00 | 63 | 1008.9 |
| 20260902231321 | 32 | 194 | 0.0 | 4.8 | 0.00 | 0.00 | 0.00 | 62 | 1009.0 |
| 20260902231216 | 32 | 193 | 0.0 | 0.0 | 0.00 | 0.00 | 0.00 | 63 | 1009.0 |
| 20260902231109 | 32 | 193 | 0.0 | 0.0 | 0.00 | 0.00 | 0.00 | 63 | 1009.0 |
| 20260902231004 | 32 | 193 | 0.0 | 0.0 | 0.00 | 0.00 | 0.00 | 62 | 1008.9 |
| 20260902230859 | 32 | 215 | 0.0 | 0.0 | 0.00 | 0.00 | 0.00 | 62 | 1008.9 |
| 20260902230753 | 32 | 229 | 0.0 | 4.8 | 0.00 | 0.00 | 0.00 | 62 | 1008.9 |
| 20260902230646 | 32 | 229 | 0.0 | 4.8 | 0.00 | 0.00 | 0.00 | 62 | 1008.9 |
| 20260902230540 | 32 | 190 | 0.0 | 4.8 | 0.00 | 0.00 | 0.00 | 62 | 1008.9 |
| 20260902230215 | 32 | 212 | 1.6 | 4.8 | 0.00 | 0.00 | 0.00 | 61 | 1008.9 |
| 20260902230108 | 32 | 198 | 1.6 | 11.3 | 0.00 | 0.00 | 0.00 | 62 | 1008.9 |
| 20260902230005 | 32 | 198 | 1.6 | 11.3 | 0.00 | 0.00 | 0.00 | 61 | 1008.9 |
| 20260902225901 | 32 | 170 | 0.0 | 11.3 | 0.00 | 0.00 | 0.00 | 61 | 1008.9 |
| 20260902225753 | 32 | 205 | 0.0 | 11.3 | 0.00 | 0.00 | 0.00 | 61 | 1009.0 |
| 20260902225646 | 32 | 215 | 1.6 | 11.3 | 0.00 | 0.00 | 0.00 | 61 | 1008.9 |
| 20260902225542 | 32 | 230 | 1.6 | 11.3 | 0.00 | 0.00 | 0.00 | 61 | 1008.9 |
| 20260902225436 | 32 | 178 | 1.6 | 11.3 | 0.00 | 0.00 | 0.00 | 61 | 1008.9 |
| 20260902225111 | 32 | 219 | 0.0 | 11.3 | 0.00 | 0.00 | 0.00 | 61 | 1008.9 |
| 20260902224747 | 32 | 214 | 0.0 | 11.3 | 0.00 | 0.00 | 0.00 | 60 | 1008.9 |
| 20260902224645 | 32 | 208 | 0.0 | 11.3 | 0.00 | 0.00 | 0.00 | 60 | 1008.9 |
| 20260902224539 | 32 | 192 | 0.0 | 0.0 | 0.00 | 0.00 | 0.00 | 60 | 1008.8 |
| 20260902224436 | 32 | 193 | 0.0 | 0.0 | 0.00 | 0.00 | 0.00 | 61 | 1008.8 |
| 20260902224329 | 32 | 235 | 0.0 | 0.0 | 0.00 | 0.00 | 0.00 | 61 | 1008.8 |
| 20260902224222 | 32 | 211 | 0.0 | 11.3 | 0.00 | 0.00 | 0.00 | 61 | 1008.9 |
| 20260902224116 | 32 | 207 | 0.0 | 11.3 | 0.00 | 0.00 | 0.00 | 60 | 1008.8 |
| 20260902223747 | 33 | 237 | 1.6 | 11.3 | 0.00 | 0.00 | 0.00 | 60 | 1008.8 |
| 20260902223645 | 33 | 246 | 1.6 | 11.3 | 0.00 | 0.00 | 0.00 | 60 | 1008.8 |
| 20260902223539 | 33 | 205 | 1.6 | 11.3 | 0.00 | 0.00 | 0.00 | 60 | 1008.8 |
| 20260902223437 | 33 | 245 | 1.6 | 11.3 | 0.00 | 0.00 | 0.00 | 60 | 1008.8 |
| 20260902223333 | 33 | 221 | 1.6 | 11.3 | 0.00 | 0.00 | 0.00 | 61 | 1008.8 |
| 20260902223228 | 33 | 254 | 1.6 | 11.3 | 0.00 | 0.00 | 0.00 | 60 | 1008.8 |
| 20260902222904 | 33 | 194 | 3.2 | 11.3 | 0.00 | 0.00 | 0.00 | 60 | 1008.8 |
| 20260902222801 | 33 | 203 | 3.2 | 11.3 | 0.00 | 0.00 | 0.00 | 60 | 1008.9 |
| 20260902222657 | 33 | 224 | 3.2 | 11.3 | 0.00 | 0.00 | 0.00 | 59 | 1008.9 |
| 20260902222552 | 33 | 259 | 3.2 | 11.3 | 0.00 | 0.00 | 0.00 | 60 | 1008.9 |
| 20260902222445 | 33 | 220 | 3.2 | 11.3 | 0.00 | 0.00 | 0.00 | 60 | 1008.9 |
| 20260902222342 | 33 | 217 | 3.2 | 11.3 | 0.00 | 0.00 | 0.00 | 60 | 1009.0 |
| 20260902222240 | 33 | 281 | 3.2 | 11.3 | 0.00 | 0.00 | 0.00 | 60 | 1008.9 |
| 20260902221918 | 33 | 231 | 3.2 | 11.3 | 0.00 | 0.00 | 0.00 | 59 | 1008.9 |
| 20260902221815 | 33 | 280 | 1.6 | 9.7 | 0.00 | 0.00 | 0.00 | 59 | 1008.9 |
| 20260902221708 | 33 | 236 | 1.6 | 9.7 | 0.00 | 0.00 | 0.00 | 60 | 1008.9 |
| 20260902221604 | 33 | 200 | 1.6 | 4.8 | 0.00 | 0.00 | 0.00 | 60 | 1008.9 |
| 20260902221500 | 33 | 204 | 1.6 | 9.7 | 0.00 | 0.00 | 0.00 | 60 | 1009.0 |
| 20260902221356 | 33 | 209 | 3.2 | 9.7 | 0.00 | 0.00 | 0.00 | 60 | 1008.9 |
| 20260902221252 | 33 | 261 | 1.6 | 14.5 | 0.00 | 0.00 | 0.00 | 60 | 1008.9 |
| 20260902221150 | 33 | 228 | 1.6 | 14.5 | 0.00 | 0.00 | 0.00 | 60 | 1009.0 |
| 20260902221048 | 33 | 236 | 1.6 | 14.5 | 0.00 | 0.00 | 0.00 | 60 | 1009.0 |
| 20260902220942 | 33 | 236 | 1.6 | 14.5 | 0.00 | 0.00 | 0.00 | 59 | 1009.0 |
| 20260902220838 | 33 | 255 | 1.6 | 14.5 | 0.00 | 0.00 | 0.00 | 59 | 1009.0 |
| 20260902220732 | 33 | 250 | 1.6 | 14.5 | 0.00 | 0.00 | 0.00 | 59 | 1009.0 |
| 20260902220626 | 33 | 266 | 3.2 | 14.5 | 0.00 | 0.00 | 0.00 | 60 | 1008.9 |
| 20260902220521 | 33 | 211 | 3.2 | 14.5 | 0.00 | 0.00 | 0.00 | 59 | 1009.0 |
| 20260902220419 | 33 | 232 | 3.2 | 14.5 | 0.00 | 0.00 | 0.00 | 60 | 1008.9 |
| 20260902220314 | 33 | 229 | 3.2 | 14.5 | 0.00 | 0.00 | 0.00 | 60 | 1008.9 |
| 20260902220207 | 33 | 213 | 3.2 | 14.5 | 0.00 | 0.00 | 0.00 | 60 | 1008.9 |
| 20260902215958 | 33 | 213 | 4.8 | 14.5 | 0.00 | 0.00 | 0.00 | 59 | 1008.9 |
| 20260902215851 | 33 | 231 | 3.2 | 14.5 | 0.00 | 0.00 | 0.00 | 59 | 1008.9 |
| 20260902215745 | 33 | 270 | 3.2 | 14.5 | 0.00 | 0.00 | 0.00 | 59 | 1009.0 |
| 20260902215639 | 33 | 293 | 3.2 | 14.5 | 0.00 | 0.00 | 0.00 | 59 | 1008.9 |
| 20260902215535 | 33 | 263 | 3.2 | 14.5 | 0.00 | 0.00 | 0.00 | 59 | 1009.0 |
| 20260902215430 | 33 | 275 | 3.2 | 14.5 | 0.00 | 0.00 | 0.00 | 59 | 1009.0 |
| 20260902215324 | 33 | 265 | 1.6 | 14.5 | 0.00 | 0.00 | 0.00 | 59 | 1009.0 |
| 20260902215218 | 33 | 205 | 1.6 | 11.3 | 0.00 | 0.00 | 0.00 | 60 | 1009.0 |
| 20260902215113 | 33 | 257 | 1.6 | 11.3 | 0.00 | 0.00 | 0.00 | 59 | 1009.0 |
| 20260902214749 | 33 | 188 | 1.6 | 12.9 | 0.00 | 0.00 | 0.00 | 60 | 1009.1 |
| 20260902214643 | 33 | 260 | 1.6 | 12.9 | 0.00 | 0.00 | 0.00 | 60 | 1009.1 |
| 20260902214539 | 33 | 252 | 1.6 | 12.9 | 0.00 | 0.00 | 0.00 | 60 | 1009.1 |
| 20260902214436 | 33 | 260 | 1.6 | 12.9 | 0.00 | 0.00 | 0.00 | 60 | 1009.1 |
| 20260902214117 | 33 | 261 | 3.2 | 12.9 | 0.00 | 0.00 | 0.00 | 59 | 1009.1 |
| 20260902214011 | 33 | 234 | 3.2 | 12.9 | 0.00 | 0.00 | 0.00 | 60 | 1009.2 |
| 20260902213906 | 33 | 230 | 3.2 | 12.9 | 0.00 | 0.00 | 0.00 | 60 | 1009.1 |
| 20260902213537 | 33 | 281 | 3.2 | 12.9 | 0.00 | 0.00 | 0.00 | 59 | 1009.1 |
| 20260902213431 | 33 | 219 | 3.2 | 12.9 | 0.00 | 0.00 | 0.00 | 59 | 1009.1 |
| 20260902213107 | 33 | 248 | 3.2 | 12.9 | 0.00 | 0.00 | 0.00 | 58 | 1009.2 |
| 20260902213003 | 33 | 281 | 3.2 | 11.3 | 0.00 | 0.00 | 0.00 | 59 | 1009.1 |
| 20260902212422 | 33 | 261 | 3.2 | 11.3 | 0.00 | 0.00 | 0.00 | 59 | 1009.2 |
| 20260902211835 | 33 | 178 | 3.2 | 11.3 | 0.00 | 0.00 | 0.00 | 58 | 1009.3 |
| 20260902211730 | 33 | 251 | 3.2 | 11.3 | 0.00 | 0.00 | 0.00 | 59 | 1009.3 |
| 20260902211627 | 33 | 229 | 3.2 | 14.5 | 0.00 | 0.00 | 0.00 | 59 | 1009.3 |
| 20260902211521 | 33 | 234 | 3.2 | 14.5 | 0.00 | 0.00 | 0.00 | 60 | 1009.4 |
| 20260902211416 | 33 | 208 | 3.2 | 14.5 | 0.00 | 0.00 | 0.00 | 60 | 1009.4 |
| 20260902211311 | 33 | 220 | 3.2 | 14.5 | 0.00 | 0.00 | 0.00 | 59 | 1009.4 |
| 20260902211209 | 33 | 259 | 3.2 | 14.5 | 0.00 | 0.00 | 0.00 | 60 | 1009.4 |
| 20260902211101 | 33 | 252 | 3.2 | 14.5 | 0.00 | 0.00 | 0.00 | 59 | 1009.4 |
| 20260902210959 | 33 | 236 | 4.8 | 14.5 | 0.00 | 0.00 | 0.00 | 59 | 1009.4 |
| 20260902210851 | 33 | 277 | 4.8 | 14.5 | 0.00 | 0.00 | 0.00 | 60 | 1009.4 |
| 20260902210749 | 33 | 250 | 4.8 | 14.5 | 0.00 | 0.00 | 0.00 | 60 | 1009.4 |
| 20260902210643 | 33 | 249 | 6.4 | 14.5 | 0.00 | 0.00 | 0.00 | 59 | 1009.4 |
| 20260902210540 | 33 | 211 | 6.4 | 14.5 | 0.00 | 0.00 | 0.00 | 59 | 1009.4 |
| 20260902210437 | 33 | 246 | 6.4 | 14.5 | 0.00 | 0.00 | 0.00 | 58 | 1009.5 |
| 20260902210329 | 33 | 184 | 6.4 | 14.5 | 0.00 | 0.00 | 0.00 | 58 | 1009.4 |
| 20260902210227 | 33 | 298 | 6.4 | 14.5 | 0.00 | 0.00 | 0.00 | 59 | 1009.5 |
| 20260902210120 | 33 | 259 | 6.4 | 14.5 | 0.00 | 0.00 | 0.00 | 59 | 1009.5 |
| 20260902210018 | 33 | 240 | 6.4 | 14.5 | 0.00 | 0.00 | 0.00 | 59 | 1009.5 |
| 20260902205911 | 33 | 237 | 6.4 | 14.5 | 0.00 | 0.00 | 0.00 | 58 | 1009.5 |
| 20260902205807 | 33 | 271 | 6.4 | 14.5 | 0.00 | 0.00 | 0.00 | 59 | 1009.6 |
| 20260902205702 | 33 | 288 | 4.8 | 14.5 | 0.00 | 0.00 | 0.00 | 58 | 1009.5 |
| 20260902205556 | 33 | 276 | 4.8 | 14.5 | 0.00 | 0.00 | 0.00 | 59 | 1009.6 |
| 20260902205232 | 33 | 286 | 6.4 | 14.5 | 0.00 | 0.00 | 0.00 | 58 | 1009.5 |
| 20260902205125 | 33 | 246 | 4.8 | 14.5 | 0.00 | 0.00 | 0.00 | 58 | 1009.5 |
| 20260902205021 | 33 | 242 | 4.8 | 14.5 | 0.00 | 0.00 | 0.00 | 58 | 1009.5 |
| 20260902204918 | 33 | 257 | 4.8 | 14.5 | 0.00 | 0.00 | 0.00 | 58 | 1009.5 |
| 20260902204813 | 33 | 252 | 4.8 | 14.5 | 0.00 | 0.00 | 0.00 | 58 | 1009.6 |
| 20260902204448 | 33 | 232 | 4.8 | 14.5 | 0.00 | 0.00 | 0.00 | 58 | 1009.5 |
| 20260902204344 | 33 | 247 | 4.8 | 14.5 | 0.00 | 0.00 | 0.00 | 58 | 1009.6 |
| 20260902204237 | 33 | 290 | 4.8 | 14.5 | 0.00 | 0.00 | 0.00 | 58 | 1009.5 |
| 20260902204133 | 33 | 263 | 4.8 | 12.9 | 0.00 | 0.00 | 0.00 | 58 | 1009.6 |
| 20260902203811 | 33 | 239 | 4.8 | 11.3 | 0.00 | 0.00 | 0.00 | 58 | 1009.6 |
| 20260902203228 | 33 | 265 | 4.8 | 11.3 | 0.00 | 0.00 | 0.00 | 58 | 1009.7 |
| 20260902202903 | 33 | 241 | 3.2 | 11.3 | 0.00 | 0.00 | 0.00 | 59 | 1009.8 |
| 20260902202758 | 33 | 298 | 3.2 | 11.3 | 0.00 | 0.00 | 0.00 | 58 | 1009.8 |
| 20260902202652 | 33 | 273 | 3.2 | 11.3 | 0.00 | 0.00 | 0.00 | 59 | 1009.8 |
| 20260902202545 | 33 | 175 | 3.2 | 14.5 | 0.00 | 0.00 | 0.00 | 59 | 1009.7 |
| 20260902202442 | 33 | 276 | 4.8 | 14.5 | 0.00 | 0.00 | 0.00 | 58 | 1009.8 |
| 20260902202337 | 33 | 219 | 3.2 | 14.5 | 0.00 | 0.00 | 0.00 | 59 | 1009.8 |
| 20260902202233 | 33 | 253 | 3.2 | 14.5 | 0.00 | 0.00 | 0.00 | 58 | 1009.8 |
| 20260902202127 | 33 | 245 | 3.2 | 14.5 | 0.00 | 0.00 | 0.00 | 59 | 1009.8 |
| 20260902202022 | 33 | 263 | 4.8 | 14.5 | 0.00 | 0.00 | 0.00 | 58 | 1009.9 |
| 20260902201920 | 33 | 256 | 4.8 | 14.5 | 0.00 | 0.00 | 0.00 | 58 | 1009.9 |
| 20260902201336 | 33 | 200 | 4.8 | 14.5 | 0.00 | 0.00 | 0.00 | 58 | 1010.0 |
| 20260902201232 | 33 | 221 | 4.8 | 14.5 | 0.00 | 0.00 | 0.00 | 58 | 1010.0 |
| 20260902201125 | 33 | 246 | 4.8 | 14.5 | 0.00 | 0.00 | 0.00 | 58 | 1010.0 |
| 20260902201020 | 33 | 258 | 4.8 | 14.5 | 0.00 | 0.00 | 0.00 | 58 | 1010.0 |
| 20260902200917 | 33 | 231 | 4.8 | 14.5 | 0.00 | 0.00 | 0.00 | 58 | 1010.0 |
| 20260902200812 | 33 | 212 | 4.8 | 14.5 | 0.00 | 0.00 | 0.00 | 58 | 1010.0 |
| 20260902200705 | 33 | 185 | 4.8 | 14.5 | 0.00 | 0.00 | 0.00 | 58 | 1010.1 |
| 20260902200559 | 33 | 234 | 4.8 | 11.3 | 0.00 | 0.00 | 0.00 | 58 | 1010.1 |
| 20260902200456 | 33 | 217 | 4.8 | 11.3 | 0.00 | 0.00 | 0.00 | 58 | 1010.1 |
| 20260902200352 | 33 | 257 | 4.8 | 11.3 | 0.00 | 0.00 | 0.00 | 59 | 1010.1 |
| 20260902200248 | 33 | 229 | 4.8 | 11.3 | 0.00 | 0.00 | 0.00 | 59 | 1010.1 |
| 20260902200144 | 33 | 196 | 4.8 | 11.3 | 0.00 | 0.00 | 0.00 | 58 | 1010.1 |
| 20260902200041 | 33 | 200 | 3.2 | 11.3 | 0.00 | 0.00 | 0.00 | 58 | 1010.1 |
| 20260902195939 | 33 | 242 | 3.2 | 11.3 | 0.00 | 0.00 | 0.00 | 58 | 1010.1 |
| 20260902195832 | 33 | 284 | 3.2 | 11.3 | 0.00 | 0.00 | 0.00 | 58 | 1010.1 |
| 20260902195726 | 33 | 244 | 3.2 | 11.3 | 0.00 | 0.00 | 0.00 | 59 | 1010.1 |
| 20260902195618 | 33 | 192 | 3.2 | 19.3 | 0.00 | 0.00 | 0.00 | 59 | 1010.1 |
| 20260902195513 | 33 | 246 | 3.2 | 19.3 | 0.00 | 0.00 | 0.00 | 59 | 1010.1 |
| 20260902195411 | 33 | 220 | 3.2 | 19.3 | 0.00 | 0.00 | 0.00 | 58 | 1010.2 |
| 20260902195307 | 33 | 261 | 3.2 | 19.3 | 0.00 | 0.00 | 0.00 | 59 | 1010.2 |
| 20260902195205 | 33 | 222 | 3.2 | 19.3 | 0.00 | 0.00 | 0.00 | 61 | 1010.2 |
| 20260902195059 | 33 | 234 | 3.2 | 19.3 | 0.00 | 0.00 | 0.00 | 58 | 1010.2 |
| 20260902194953 | 33 | 202 | 3.2 | 19.3 | 0.00 | 0.00 | 0.00 | 59 | 1010.2 |
| 20260902194851 | 33 | 237 | 4.8 | 19.3 | 0.00 | 0.00 | 0.00 | 59 | 1010.2 |
| 20260902194746 | 33 | 215 | 4.8 | 19.3 | 0.00 | 0.00 | 0.00 | 58 | 1010.3 |
| 20260902194643 | 33 | 250 | 4.8 | 19.3 | 0.00 | 0.00 | 0.00 | 58 | 1010.3 |
| 20260902194538 | 33 | 142 | 6.4 | 19.3 | 0.00 | 0.00 | 0.00 | 59 | 1010.3 |
| 20260902194435 | 33 | 248 | 6.4 | 19.3 | 0.00 | 0.00 | 0.00 | 59 | 1010.3 |
| 20260902194329 | 33 | 216 | 8.0 | 19.3 | 0.00 | 0.00 | 0.00 | 59 | 1010.3 |
| 20260902194222 | 33 | 168 | 8.0 | 19.3 | 0.00 | 0.00 | 0.00 | 58 | 1010.3 |
| 20260902193856 | 33 | 268 | 6.4 | 19.3 | 0.00 | 0.00 | 0.00 | 58 | 1010.3 |
| 20260902193749 | 33 | 277 | 6.4 | 19.3 | 0.00 | 0.00 | 0.00 | 59 | 1010.4 |
| 20260902193647 | 33 | 280 | 6.4 | 19.3 | 0.00 | 0.00 | 0.00 | 58 | 1010.3 |
| 20260902193543 | 33 | 282 | 6.4 | 16.1 | 0.00 | 0.00 | 0.00 | 59 | 1010.4 |
| 20260902193438 | 33 | 257 | 6.4 | 16.1 | 0.00 | 0.00 | 0.00 | 58 | 1010.4 |
| 20260902193336 | 33 | 264 | 4.8 | 16.1 | 0.00 | 0.00 | 0.00 | 58 | 1010.5 |
| 20260902193231 | 33 | 276 | 4.8 | 16.1 | 0.00 | 0.00 | 0.00 | 59 | 1010.5 |
| 20260902193128 | 33 | 315 | 4.8 | 16.1 | 0.00 | 0.00 | 0.00 | 61 | 1010.4 |
| 20260902192802 | 33 | 244 | 6.4 | 14.5 | 0.00 | 0.00 | 0.00 | 59 | 1010.5 |
| 20260902192439 | 33 | 240 | 4.8 | 17.7 | 0.00 | 0.00 | 0.00 | 59 | 1010.5 |
| 20260902192336 | 33 | 274 | 4.8 | 17.7 | 0.00 | 0.00 | 0.00 | 61 | 1010.5 |
| 20260902192233 | 33 | 296 | 4.8 | 17.7 | 0.00 | 0.00 | 0.00 | 59 | 1010.5 |
| 20260902192131 | 33 | 290 | 4.8 | 17.7 | 0.00 | 0.00 | 0.00 | 58 | 1010.5 |
| 20260902192024 | 33 | 210 | 3.2 | 17.7 | 0.00 | 0.00 | 0.00 | 60 | 1010.6 |
| 20260902191218 | 33 | 224 | 4.8 | 17.7 | 0.00 | 0.00 | 0.00 | 60 | 1010.6 |
| 20260902191113 | 33 | 297 | 4.8 | 17.7 | 0.00 | 0.00 | 0.00 | 59 | 1010.6 |
| 20260902191006 | 33 | 298 | 4.8 | 17.7 | 0.00 | 0.00 | 0.00 | 58 | 1010.6 |
| 20260902190903 | 33 | 279 | 4.8 | 17.7 | 0.00 | 0.00 | 0.00 | 58 | 1010.7 |
| 20260902190758 | 33 | 188 | 6.4 | 17.7 | 0.00 | 0.00 | 0.00 | 58 | 1010.7 |
| 20260902190434 | 33 | 281 | 4.8 | 16.1 | 0.00 | 0.00 | 0.00 | 58 | 1010.6 |
| 20260902190328 | 33 | 234 | 4.8 | 11.3 | 0.00 | 0.00 | 0.00 | 58 | 1010.7 |
| 20260902190222 | 33 | 227 | 4.8 | 11.3 | 0.00 | 0.00 | 0.00 | 58 | 1010.7 |
| 20260902190115 | 33 | 294 | 4.8 | 11.3 | 0.00 | 0.00 | 0.00 | 58 | 1010.7 |
| 20260902190009 | 33 | 267 | 4.8 | 12.9 | 0.00 | 0.00 | 0.00 | 57 | 1010.7 |
| 20260902185902 | 33 | 206 | 4.8 | 12.9 | 0.00 | 0.00 | 0.00 | 58 | 1010.7 |
| 20260902185755 | 33 | 281 | 4.8 | 12.9 | 0.00 | 0.00 | 0.00 | 59 | 1010.7 |
| 20260902185652 | 33 | 230 | 4.8 | 12.9 | 0.00 | 0.00 | 0.00 | 59 | 1010.7 |
| 20260902185549 | 33 | 284 | 4.8 | 12.9 | 0.00 | 0.00 | 0.00 | 58 | 1010.7 |
| 20260902185446 | 33 | 263 | 4.8 | 12.9 | 0.00 | 0.00 | 0.00 | 58 | 1010.7 |
| 20260902184901 | 33 | 235 | 3.2 | 12.9 | 0.00 | 0.00 | 0.00 | 59 | 1010.6 |
| 20260902184756 | 33 | 256 | 3.2 | 12.9 | 0.00 | 0.00 | 0.00 | 59 | 1010.6 |
| 20260902184654 | 33 | 234 | 3.2 | 12.9 | 0.00 | 0.00 | 0.00 | 61 | 1010.6 |
| 20260902184332 | 33 | 256 | 3.2 | 12.9 | 0.00 | 0.00 | 0.00 | 61 | 1010.6 |
| 20260902184226 | 33 | 242 | 3.2 | 12.9 | 0.00 | 0.00 | 0.00 | 59 | 1010.6 |
| 20260902184120 | 33 | 265 | 3.2 | 12.9 | 0.00 | 0.00 | 0.00 | 60 | 1010.6 |
| 20260902184018 | 32 | 263 | 1.6 | 9.7 | 0.00 | 0.00 | 0.00 | 59 | 1010.7 |
| 20260902183651 | 32 | 273 | 3.2 | 11.3 | 0.00 | 0.00 | 0.00 | 60 | 1010.7 |
| 20260902183546 | 32 | 315 | 3.2 | 11.3 | 0.00 | 0.00 | 0.00 | 59 | 1010.8 |
| 20260902183442 | 32 | 257 | 3.2 | 11.3 | 0.00 | 0.00 | 0.00 | 60 | 1010.7 |
| 20260902183337 | 32 | 244 | 3.2 | 11.3 | 0.00 | 0.00 | 0.00 | 60 | 1010.7 |
| 20260902183235 | 32 | 258 | 3.2 | 11.3 | 0.00 | 0.00 | 0.00 | 59 | 1010.8 |
| 20260902183129 | 32 | 250 | 3.2 | 11.3 | 0.00 | 0.00 | 0.00 | 61 | 1010.8 |
| 20260902183021 | 32 | 248 | 4.8 | 11.3 | 0.00 | 0.00 | 0.00 | 60 | 1010.8 |
| 20260902182915 | 33 | 255 | 4.8 | 11.3 | 0.00 | 0.00 | 0.00 | 60 | 1010.9 |
| 20260902182808 | 33 | 261 | 4.8 | 11.3 | 0.00 | 0.00 | 0.00 | 61 | 1010.8 |
| 20260902182706 | 33 | 234 | 4.8 | 11.3 | 0.00 | 0.00 | 0.00 | 60 | 1010.8 |
| 20260902182602 | 33 | 233 | 4.8 | 11.3 | 0.00 | 0.00 | 0.00 | 60 | 1010.9 |
| 20260902182455 | 33 | 290 | 4.8 | 11.3 | 0.00 | 0.00 | 0.00 | 58 | 1010.9 |
| 20260902182353 | 33 | 266 | 4.8 | 11.3 | 0.00 | 0.00 | 0.00 | 59 | 1010.9 |
| 20260902182030 | 32 | 281 | 4.8 | 11.3 | 0.00 | 0.00 | 0.00 | 60 | 1010.9 |
| 20260902181923 | 32 | 265 | 4.8 | 16.1 | 0.00 | 0.00 | 0.00 | 60 | 1011.0 |
| 20260902181817 | 32 | 290 | 4.8 | 16.1 | 0.00 | 0.00 | 0.00 | 60 | 1011.0 |
| 20260902181713 | 32 | 275 | 6.4 | 16.1 | 0.00 | 0.00 | 0.00 | 59 | 1011.0 |
| 20260902181611 | 32 | 263 | 6.4 | 16.1 | 0.00 | 0.00 | 0.00 | 60 | 1010.9 |
| 20260902181243 | 32 | 277 | 8.0 | 16.1 | 0.00 | 0.00 | 0.00 | 59 | 1011.0 |
| 20260902181137 | 32 | 244 | 8.0 | 16.1 | 0.00 | 0.00 | 0.00 | 59 | 1011.0 |
| 20260902181029 | 32 | 288 | 8.0 | 16.1 | 0.00 | 0.00 | 0.00 | 58 | 1011.0 |
| 20260902180704 | 32 | 0 | 6.4 | 16.1 | 0.00 | 0.00 | 0.00 | 58 | 1011.0 |
| 20260902180601 | 32 | 274 | 6.4 | 16.1 | 0.00 | 0.00 | 0.00 | 58 | 1011.0 |
| 20260902180454 | 32 | 281 | 6.4 | 16.1 | 0.00 | 0.00 | 0.00 | 58 | 1011.0 |
| 20260902180347 | 32 | 273 | 6.4 | 16.1 | 0.00 | 0.00 | 0.00 | 58 | 1011.0 |
| 20260902180243 | 32 | 0 | 6.4 | 16.1 | 0.00 | 0.00 | 0.00 | 60 | 1011.1 |
| 20260902180138 | 32 | 234 | 6.4 | 16.1 | 0.00 | 0.00 | 0.00 | 58 | 1011.1 |
| 20260902180034 | 32 | 250 | 6.4 | 16.1 | 0.00 | 0.00 | 0.00 | 58 | 1011.1 |
| 20260902175926 | 32 | 295 | 6.4 | 14.5 | 0.00 | 0.00 | 0.00 | 59 | 1011.1 |
| 20260902175819 | 32 | 259 | 6.4 | 14.5 | 0.00 | 0.00 | 0.00 | 58 | 1011.1 |
| 20260902175714 | 32 | 230 | 4.8 | 14.5 | 0.00 | 0.00 | 0.00 | 59 | 1011.1 |
| 20260902175609 | 32 | 279 | 4.8 | 14.5 | 0.00 | 0.00 | 0.00 | 60 | 1011.1 |
| 20260902175244 | 32 | 290 | 6.4 | 14.5 | 0.00 | 0.00 | 0.00 | 59 | 1011.1 |
| 20260902175140 | 32 | 258 | 6.4 | 14.5 | 0.00 | 0.00 | 0.00 | 58 | 1011.2 |
| 20260902175037 | 32 | 265 | 6.4 | 14.5 | 0.00 | 0.00 | 0.00 | 59 | 1011.3 |
| 20260902174930 | 32 | 245 | 6.4 | 14.5 | 0.00 | 0.00 | 0.00 | 61 | 1011.3 |
| 20260902174824 | 32 | 270 | 6.4 | 14.5 | 0.00 | 0.00 | 0.00 | 61 | 1011.3 |
| 20260902174718 | 32 | 278 | 8.0 | 14.5 | 0.00 | 0.00 | 0.00 | 59 | 1011.3 |
| 20260902174616 | 32 | 284 | 8.0 | 14.5 | 0.00 | 0.00 | 0.00 | 59 | 1011.3 |
| 20260902174509 | 32 | 288 | 8.0 | 14.5 | 0.00 | 0.00 | 0.00 | 59 | 1011.3 |
| 20260902174406 | 32 | 296 | 8.0 | 12.9 | 0.00 | 0.00 | 0.00 | 59 | 1011.3 |
| 20260902174302 | 32 | 307 | 8.0 | 12.9 | 0.00 | 0.00 | 0.00 | 61 | 1011.3 |
| 20260902174158 | 32 | 281 | 6.4 | 17.7 | 0.00 | 0.00 | 0.00 | 61 | 1011.3 |
| 20260902174055 | 32 | 287 | 6.4 | 17.7 | 0.00 | 0.00 | 0.00 | 61 | 1011.3 |
| 20260902173949 | 32 | 301 | 6.4 | 17.7 | 0.00 | 0.00 | 0.00 | 60 | 1011.3 |
| 20260902173626 | 32 | 281 | 6.4 | 17.7 | 0.00 | 0.00 | 0.00 | 59 | 1011.3 |
| 20260902173523 | 32 | 331 | 6.4 | 17.7 | 0.00 | 0.00 | 0.00 | 61 | 1011.4 |
| 20260902173415 | 32 | 281 | 6.4 | 17.7 | 0.00 | 0.00 | 0.00 | 60 | 1011.4 |
| 20260902173051 | 32 | 249 | 8.0 | 20.9 | 0.00 | 0.00 | 0.00 | 61 | 1011.5 |
| 20260902172724 | 32 | 255 | 8.0 | 20.9 | 0.00 | 0.00 | 0.00 | 61 | 1011.5 |
| 20260902172619 | 32 | 279 | 8.0 | 20.9 | 0.00 | 0.00 | 0.00 | 61 | 1011.6 |
| 20260902172517 | 32 | 246 | 8.0 | 20.9 | 0.00 | 0.00 | 0.00 | 60 | 1011.5 |
| 20260902172411 | 32 | 307 | 8.0 | 20.9 | 0.00 | 0.00 | 0.00 | 60 | 1011.5 |
| 20260902172308 | 32 | 274 | 8.0 | 20.9 | 0.00 | 0.00 | 0.00 | 61 | 1011.5 |
| 20260902172201 | 32 | 278 | 9.7 | 20.9 | 0.00 | 0.00 | 0.00 | 59 | 1011.5 |
| 20260902172057 | 32 | 289 | 9.7 | 20.9 | 0.00 | 0.00 | 0.00 | 59 | 1011.6 |
| 20260902171955 | 32 | 273 | 9.7 | 20.9 | 0.00 | 0.00 | 0.00 | 59 | 1011.5 |
| 20260902171850 | 32 | 314 | 9.7 | 20.9 | 0.00 | 0.00 | 0.00 | 60 | 1011.5 |
| 20260902171745 | 32 | 269 | 9.7 | 20.9 | 0.00 | 0.00 | 0.00 | 60 | 1011.6 |
| 20260902171639 | 32 | 287 | 9.7 | 20.9 | 0.00 | 0.00 | 0.00 | 59 | 1011.5 |
| 20260902171537 | 32 | 289 | 9.7 | 20.9 | 0.00 | 0.00 | 0.00 | 59 | 1011.5 |
| 20260902171434 | 32 | 266 | 9.7 | 20.9 | 0.00 | 0.00 | 0.00 | 59 | 1011.6 |
| 20260902171327 | 32 | 266 | 9.7 | 20.9 | 0.00 | 0.00 | 0.00 | 59 | 1011.6 |
| 20260902171223 | 32 | 254 | 8.0 | 20.9 | 0.00 | 0.00 | 0.00 | 58 | 1011.5 |
| 20260902171118 | 32 | 267 | 8.0 | 19.3 | 0.00 | 0.00 | 0.00 | 59 | 1011.6 |
| 20260902171013 | 32 | 246 | 8.0 | 19.3 | 0.00 | 0.00 | 0.00 | 59 | 1011.6 |
| 20260902170908 | 32 | 262 | 8.0 | 19.3 | 0.00 | 0.00 | 0.00 | 59 | 1011.6 |
| 20260902170804 | 32 | 277 | 6.4 | 19.3 | 0.00 | 0.00 | 0.00 | 59 | 1011.6 |
| 20260902170438 | 32 | 289 | 4.8 | 19.3 | 0.00 | 0.00 | 0.00 | 62 | 1011.6 |
| 20260902170335 | 32 | 268 | 4.8 | 19.3 | 0.00 | 0.00 | 0.00 | 62 | 1011.6 |
| 20260902170014 | 32 | 261 | 4.8 | 14.5 | 0.00 | 0.00 | 0.00 | 62 | 1011.6 |
| 20260902165206 | 32 | 259 | 3.2 | 12.9 | 0.00 | 0.00 | 0.00 | 61 | 1011.7 |
| 20260902165059 | 32 | 265 | 3.2 | 9.7 | 0.00 | 0.00 | 0.00 | 60 | 1011.6 |
| 20260902164955 | 32 | 194 | 3.2 | 9.7 | 0.00 | 0.00 | 0.00 | 61 | 1011.6 |
| 20260902164849 | 32 | 158 | 1.6 | 9.7 | 0.00 | 0.00 | 0.00 | 61 | 1011.6 |
| 20260902164742 | 32 | 180 | 1.6 | 9.7 | 0.00 | 0.00 | 0.00 | 61 | 1011.6 |
| 20260902164639 | 32 | 185 | 1.6 | 12.9 | 0.00 | 0.00 | 0.00 | 62 | 1011.6 |
| 20260902164313 | 32 | 172 | 1.6 | 12.9 | 0.00 | 0.00 | 0.00 | 62 | 1011.7 |
| 20260902164211 | 32 | 195 | 1.6 | 12.9 | 0.00 | 0.00 | 0.00 | 63 | 1011.7 |
| 20260902164109 | 32 | 173 | 3.2 | 12.9 | 0.00 | 0.00 | 0.00 | 63 | 1011.7 |
| 20260902164006 | 32 | 186 | 3.2 | 12.9 | 0.00 | 0.00 | 0.00 | 63 | 1011.7 |
| 20260902163859 | 32 | 221 | 3.2 | 12.9 | 0.00 | 0.00 | 0.00 | 63 | 1011.7 |
| 20260902163534 | 32 | 189 | 3.2 | 12.9 | 0.00 | 0.00 | 0.00 | 64 | 1011.7 |
| 20260902163428 | 32 | 219 | 3.2 | 12.9 | 0.00 | 0.00 | 0.00 | 64 | 1011.7 |
| 20260902163325 | 32 | 279 | 3.2 | 12.9 | 0.00 | 0.00 | 0.00 | 63 | 1011.7 |
| 20260902163000 | 32 | 221 | 3.2 | 12.9 | 0.00 | 0.00 | 0.00 | 63 | 1011.7 |
| 20260902162856 | 32 | 209 | 3.2 | 12.9 | 0.00 | 0.00 | 0.00 | 63 | 1011.8 |
| 20260902162750 | 32 | 252 | 1.6 | 12.9 | 0.00 | 0.00 | 0.00 | 64 | 1011.7 |
| 20260902162644 | 32 | 241 | 1.6 | 9.7 | 0.00 | 0.00 | 0.00 | 64 | 1011.7 |
| 20260902162537 | 32 | 252 | 1.6 | 9.7 | 0.00 | 0.00 | 0.00 | 64 | 1011.6 |
| 20260902162432 | 32 | 219 | 1.6 | 9.7 | 0.00 | 0.00 | 0.00 | 65 | 1011.7 |
| 20260902162330 | 31 | 224 | 1.6 | 12.9 | 0.00 | 0.00 | 0.00 | 65 | 1011.7 |
| 20260902162227 | 31 | 226 | 1.6 | 12.9 | 0.00 | 0.00 | 0.00 | 64 | 1011.7 |
| 20260902162124 | 31 | 220 | 1.6 | 12.9 | 0.00 | 0.00 | 0.00 | 65 | 1011.8 |
| 20260902162017 | 31 | 269 | 1.6 | 12.9 | 0.00 | 0.00 | 0.00 | 66 | 1011.7 |
| 20260902161912 | 31 | 269 | 3.2 | 12.9 | 0.00 | 0.00 | 0.00 | 66 | 1011.8 |
| 20260902161808 | 31 | 263 | 3.2 | 12.9 | 0.00 | 0.00 | 0.00 | 67 | 1011.8 |
| 20260902161700 | 31 | 263 | 4.8 | 12.9 | 0.00 | 0.00 | 0.00 | 67 | 1011.8 |
| 20260902161332 | 31 | 290 | 4.8 | 14.5 | 0.00 | 0.00 | 0.00 | 64 | 1011.8 |
| 20260902161012 | 31 | 279 | 4.8 | 14.5 | 0.00 | 0.00 | 0.00 | 65 | 1011.8 |
| 20260902160909 | 31 | 269 | 4.8 | 14.5 | 0.00 | 0.00 | 0.00 | 65 | 1011.8 |
| 20260902160806 | 31 | 0 | 4.8 | 14.5 | 0.00 | 0.00 | 0.00 | 64 | 1011.8 |
| 20260902160225 | 31 | 285 | 3.2 | 11.3 | 0.00 | 0.00 | 0.00 | 66 | 1011.8 |
| 20260902160122 | 31 | 290 | 3.2 | 11.3 | 0.00 | 0.00 | 0.00 | 68 | 1011.8 |
| 20260902160016 | 31 | 225 | 3.2 | 11.3 | 0.00 | 0.00 | 0.00 | 67 | 1011.9 |
| 20260902155909 | 31 | 215 | 3.2 | 11.3 | 0.00 | 0.00 | 0.00 | 67 | 1011.8 |
| 20260902155804 | 31 | 268 | 3.2 | 11.3 | 0.00 | 0.00 | 0.00 | 68 | 1011.8 |
| 20260902155701 | 31 | 273 | 3.2 | 11.3 | 0.00 | 0.00 | 0.00 | 67 | 1011.8 |
| 20260902155559 | 31 | 230 | 3.2 | 11.3 | 0.00 | 0.00 | 0.00 | 67 | 1011.8 |
| 20260902155456 | 31 | 253 | 3.2 | 11.3 | 0.00 | 0.00 | 0.00 | 67 | 1011.8 |
| 20260902155351 | 31 | 271 | 3.2 | 11.3 | 0.00 | 0.00 | 0.00 | 68 | 1011.8 |
| 20260902155244 | 31 | 259 | 3.2 | 8.0 | 0.00 | 0.00 | 0.00 | 67 | 1011.8 |
| 20260902155137 | 31 | 251 | 3.2 | 14.5 | 0.00 | 0.00 | 0.00 | 69 | 1011.9 |
| 20260902155031 | 31 | 250 | 4.8 | 14.5 | 0.00 | 0.00 | 0.00 | 67 | 1011.8 |
| 20260902154928 | 31 | 227 | 3.2 | 12.9 | 0.00 | 0.00 | 0.00 | 67 | 1011.8 |
| 20260902154607 | 31 | 279 | 4.8 | 16.1 | 0.00 | 0.00 | 0.00 | 66 | 1011.9 |
| 20260902154459 | 31 | 248 | 4.8 | 16.1 | 0.00 | 0.00 | 0.00 | 66 | 1011.9 |
| 20260902154355 | 31 | 272 | 4.8 | 16.1 | 0.00 | 0.00 | 0.00 | 66 | 1011.9 |
| 20260902154252 | 31 | 240 | 4.8 | 16.1 | 0.00 | 0.00 | 0.00 | 67 | 1011.9 |
| 20260902154147 | 30 | 262 | 4.8 | 16.1 | 0.00 | 0.00 | 0.00 | 66 | 1011.9 |
| 20260902154043 | 30 | 301 | 4.8 | 16.1 | 0.00 | 0.00 | 0.00 | 67 | 1012.0 |
| 20260902153938 | 30 | 0 | 4.8 | 16.1 | 0.00 | 0.00 | 0.00 | 67 | 1012.0 |
| 20260902153833 | 30 | 302 | 6.4 | 16.1 | 0.00 | 0.00 | 0.00 | 66 | 1012.0 |
| 20260902153509 | 30 | 229 | 4.8 | 16.1 | 0.00 | 0.00 | 0.00 | 66 | 1012.0 |
| 20260902153402 | 30 | 246 | 4.8 | 16.1 | 0.00 | 0.00 | 0.00 | 67 | 1012.0 |
| 20260902153255 | 30 | 282 | 4.8 | 16.1 | 0.00 | 0.00 | 0.00 | 69 | 1012.0 |
| 20260902153151 | 30 | 265 | 4.8 | 16.1 | 0.00 | 0.00 | 0.00 | 69 | 1012.0 |
| 20260902153047 | 30 | 281 | 4.8 | 16.1 | 0.00 | 0.00 | 0.00 | 68 | 1012.0 |
| 20260902152943 | 30 | 253 | 4.8 | 16.1 | 0.00 | 0.00 | 0.00 | 68 | 1012.0 |
| 20260902152617 | 30 | 273 | 3.2 | 14.5 | 0.00 | 0.00 | 0.00 | 69 | 1012.0 |
| 20260902152253 | 30 | 242 | 3.2 | 14.5 | 0.00 | 0.00 | 0.00 | 69 | 1012.0 |
| 20260902152149 | 30 | 265 | 3.2 | 14.5 | 0.00 | 0.00 | 0.00 | 68 | 1011.9 |
| 20260902152045 | 30 | 239 | 3.2 | 14.5 | 0.00 | 0.00 | 0.00 | 69 | 1012.0 |
| 20260902151941 | 30 | 246 | 3.2 | 11.3 | 0.00 | 0.00 | 0.00 | 71 | 1012.0 |
| 20260902151834 | 30 | 250 | 3.2 | 11.3 | 0.00 | 0.00 | 0.00 | 71 | 1012.0 |
| 20260902151508 | 30 | 259 | 4.8 | 14.5 | 0.00 | 0.00 | 0.00 | 72 | 1012.0 |
| 20260902151145 | 30 | 310 | 4.8 | 14.5 | 0.00 | 0.00 | 0.00 | 70 | 1012.0 |
| 20260902150822 | 30 | 285 | 4.8 | 14.5 | 0.00 | 0.00 | 0.00 | 71 | 1011.9 |
| 20260902150715 | 30 | 256 | 4.8 | 14.5 | 0.00 | 0.00 | 0.00 | 71 | 1011.9 |
| 20260902150609 | 30 | 234 | 4.8 | 14.5 | 0.00 | 0.00 | 0.00 | 71 | 1012.0 |
| 20260902150505 | 30 | 273 | 4.8 | 14.5 | 0.00 | 0.00 | 0.00 | 71 | 1011.9 |
| 20260902150402 | 30 | 257 | 4.8 | 14.5 | 0.00 | 0.00 | 0.00 | 71 | 1012.0 |
| 20260902150032 | 30 | 302 | 4.8 | 14.5 | 0.00 | 0.00 | 0.00 | 70 | 1012.0 |
| 20260902145927 | 30 | 263 | 3.2 | 14.5 | 0.00 | 0.00 | 0.00 | 69 | 1011.9 |
| 20260902145825 | 30 | 246 | 3.2 | 14.5 | 0.00 | 0.00 | 0.00 | 70 | 1011.9 |
| 20260902145719 | 30 | 281 | 3.2 | 14.5 | 0.00 | 0.00 | 0.00 | 74 | 1011.9 |
| 20260902145616 | 30 | 279 | 1.6 | 9.7 | 0.00 | 0.00 | 0.00 | 72 | 1011.9 |
| 20260902145251 | 29 | 284 | 3.2 | 9.7 | 0.00 | 0.00 | 0.00 | 72 | 1011.9 |
| 20260902145144 | 29 | 267 | 3.2 | 11.3 | 0.00 | 0.00 | 0.00 | 73 | 1011.9 |
| 20260902145040 | 29 | 277 | 3.2 | 11.3 | 0.00 | 0.00 | 0.00 | 74 | 1011.9 |
| 20260902144934 | 29 | 278 | 3.2 | 11.3 | 0.00 | 0.00 | 0.00 | 74 | 1011.9 |
| 20260902144827 | 29 | 257 | 3.2 | 11.3 | 0.00 | 0.00 | 0.00 | 73 | 1011.9 |
| 20260902144724 | 29 | 242 | 3.2 | 11.3 | 0.00 | 0.00 | 0.00 | 74 | 1011.9 |
| 20260902144359 | 29 | 302 | 3.2 | 11.3 | 0.00 | 0.00 | 0.00 | 74 | 1012.0 |
| 20260902144254 | 29 | 304 | 3.2 | 11.3 | 0.00 | 0.00 | 0.00 | 74 | 1011.9 |
| 20260902144151 | 29 | 296 | 3.2 | 11.3 | 0.00 | 0.00 | 0.00 | 74 | 1011.9 |
| 20260902144044 | 29 | 259 | 3.2 | 11.3 | 0.00 | 0.00 | 0.00 | 74 | 1011.9 |
| 20260902143943 | 28 | 259 | 3.2 | 11.3 | 0.00 | 0.00 | 0.00 | 74 | 1011.9 |
| 20260902143835 | 28 | 263 | 3.2 | 11.3 | 0.00 | 0.00 | 0.00 | 75 | 1011.9 |
| 20260902143728 | 28 | 286 | 3.2 | 11.3 | 0.00 | 0.00 | 0.00 | 74 | 1012.0 |
| 20260902143625 | 28 | 288 | 4.8 | 11.3 | 0.00 | 0.00 | 0.00 | 74 | 1012.0 |
| 20260902143516 | 28 | 286 | 3.2 | 11.3 | 0.00 | 0.00 | 0.00 | 75 | 1012.0 |
| 20260902143414 | 28 | 294 | 3.2 | 11.3 | 0.00 | 0.00 | 0.00 | 74 | 1011.9 |
| 20260902143307 | 28 | 270 | 3.2 | 11.3 | 0.00 | 0.00 | 0.00 | 74 | 1011.9 |
| 20260902142942 | 28 | 255 | 3.2 | 9.7 | 0.00 | 0.00 | 0.00 | 76 | 1011.9 |
| 20260902142834 | 28 | 294 | 3.2 | 9.7 | 0.00 | 0.00 | 0.00 | 74 | 1011.9 |
| 20260902142727 | 28 | 277 | 3.2 | 6.4 | 0.00 | 0.00 | 0.00 | 76 | 1011.9 |
| 20260902142623 | 28 | 280 | 3.2 | 6.4 | 0.00 | 0.00 | 0.00 | 76 | 1011.9 |
| 20260902142256 | 28 | 293 | 3.2 | 11.3 | 0.00 | 0.00 | 0.00 | 76 | 1011.9 |
| 20260902142153 | 28 | 292 | 3.2 | 11.3 | 0.00 | 0.00 | 0.00 | 75 | 1011.8 |
| 20260902141826 | 28 | 277 | 3.2 | 9.7 | 0.00 | 0.00 | 0.00 | 76 | 1011.9 |
| 20260902141723 | 28 | 281 | 3.2 | 9.7 | 0.00 | 0.00 | 0.00 | 76 | 1011.9 |
| 20260902141620 | 28 | 284 | 1.6 | 9.7 | 0.00 | 0.00 | 0.00 | 77 | 1011.9 |
| 20260902141517 | 28 | 275 | 1.6 | 9.7 | 0.00 | 0.00 | 0.00 | 78 | 1011.9 |
| 20260902141413 | 28 | 276 | 3.2 | 9.7 | 0.00 | 0.00 | 0.00 | 77 | 1011.8 |
| 20260902140607 | 27 | 273 | 3.2 | 8.0 | 0.00 | 0.00 | 0.00 | 77 | 1011.8 |
| 20260902140505 | 27 | 287 | 3.2 | 8.0 | 0.00 | 0.00 | 0.00 | 78 | 1011.9 |
| 20260902140359 | 27 | 264 | 3.2 | 8.0 | 0.00 | 0.00 | 0.00 | 78 | 1011.8 |
| 20260902140253 | 27 | 284 | 3.2 | 8.0 | 0.00 | 0.00 | 0.00 | 79 | 1011.8 |
| 20260902140149 | 27 | 278 | 3.2 | 8.0 | 0.00 | 0.00 | 0.00 | 79 | 1011.8 |
| 20260902140047 | 27 | 278 | 3.2 | 8.0 | 0.00 | 0.00 | 0.00 | 78 | 1011.7 |
| 20260902135945 | 27 | 279 | 3.2 | 8.0 | 0.00 | 0.00 | 0.00 | 79 | 1011.8 |
| 20260902135840 | 27 | 270 | 3.2 | 8.0 | 0.00 | 0.00 | 0.00 | 79 | 1011.8 |
| 20260902135737 | 27 | 286 | 3.2 | 8.0 | 0.00 | 0.00 | 0.00 | 79 | 1011.8 |
| 20260902135631 | 27 | 271 | 3.2 | 8.0 | 0.00 | 0.00 | 0.00 | 80 | 1011.8 |
| 20260902135524 | 27 | 286 | 3.2 | 8.0 | 0.00 | 0.00 | 0.00 | 79 | 1011.7 |
| 20260902135417 | 27 | 287 | 3.2 | 8.0 | 0.00 | 0.00 | 0.00 | 79 | 1011.7 |
| 20260902135313 | 27 | 279 | 3.2 | 8.0 | 0.00 | 0.00 | 0.00 | 78 | 1011.8 |
| 20260902135207 | 27 | 274 | 1.6 | 8.0 | 0.00 | 0.00 | 0.00 | 79 | 1011.8 |
| 20260902135102 | 27 | 295 | 1.6 | 8.0 | 0.00 | 0.00 | 0.00 | 79 | 1011.7 |
| 20260902134022 | 27 | 246 | 0.0 | 8.0 | 0.00 | 0.00 | 0.00 | 80 | 1011.7 |
| 20260902133915 | 27 | 275 | 0.0 | 6.4 | 0.00 | 0.00 | 0.00 | 81 | 1011.7 |
| 20260902133812 | 27 | 261 | 0.0 | 3.2 | 0.00 | 0.00 | 0.00 | 80 | 1011.7 |
| 20260902133705 | 27 | 273 | 0.0 | 3.2 | 0.00 | 0.00 | 0.00 | 81 | 1011.7 |
| 20260902133559 | 27 | 271 | 0.0 | 4.8 | 0.00 | 0.00 | 0.00 | 80 | 1011.7 |
| 20260902133454 | 27 | 271 | 0.0 | 4.8 | 0.00 | 0.00 | 0.00 | 81 | 1011.7 |
| 20260902133348 | 27 | 295 | 0.0 | 3.2 | 0.00 | 0.00 | 0.00 | 81 | 1011.7 |
| 20260902133241 | 27 | 288 | 0.0 | 3.2 | 0.00 | 0.00 | 0.00 | 81 | 1011.8 |
| 20260902133135 | 27 | 288 | 0.0 | 3.2 | 0.00 | 0.00 | 0.00 | 81 | 1011.7 |
| 20260902133031 | 27 | 289 | 0.0 | 3.2 | 0.00 | 0.00 | 0.00 | 81 | 1011.8 |
| 20260902132710 | 27 | 321 | 0.0 | 0.0 | 0.00 | 0.00 | 0.00 | 81 | 1011.9 |
| 20260902132603 | 27 | 321 | 0.0 | 4.8 | 0.00 | 0.00 | 0.00 | 81 | 1011.9 |
| 20260902132501 | 27 | 322 | 0.0 | 4.8 | 0.00 | 0.00 | 0.00 | 80 | 1012.0 |
| 20260902132356 | 27 | 323 | 0.0 | 4.8 | 0.00 | 0.00 | 0.00 | 80 | 1012.0 |
| 20260902132251 | 27 | 325 | 0.0 | 4.8 | 0.00 | 0.00 | 0.00 | 81 | 1012.0 |
| 20260902132148 | 27 | 325 | 0.0 | 4.8 | 0.00 | 0.00 | 0.00 | 81 | 1012.0 |
| 20260902131822 | 27 | 328 | 0.0 | 0.0 | 0.00 | 0.00 | 0.00 | 81 | 1012.0 |
| 20260902131715 | 27 | 328 | 0.0 | 0.0 | 0.00 | 0.00 | 0.00 | 82 | 1012.0 |
| 20260902131612 | 26 | 329 | 0.0 | 0.0 | 0.00 | 0.00 | 0.00 | 81 | 1012.1 |
| 20260902131510 | 26 | 329 | 0.0 | 9.7 | 0.00 | 0.00 | 0.00 | 81 | 1012.1 |
| 20260902131408 | 26 | 328 | 0.0 | 9.7 | 0.00 | 0.00 | 0.00 | 82 | 1012.1 |
| 20260902131306 | 26 | 333 | 0.0 | 9.7 | 0.00 | 0.00 | 0.00 | 82 | 1012.1 |
| 20260902131201 | 26 | 273 | 0.0 | 9.7 | 0.00 | 0.00 | 0.00 | 82 | 1012.1 |
| 20260902130839 | 26 | 269 | 0.0 | 8.0 | 0.00 | 0.00 | 0.00 | 81 | 1011.9 |
| 20260902130518 | 26 | 279 | 0.0 | 0.0 | 0.00 | 0.00 | 0.00 | 82 | 1011.9 |
| 20260902130411 | 26 | 290 | 0.0 | 0.0 | 0.00 | 0.00 | 0.00 | 83 | 1011.9 |
| 20260902130309 | 26 | 290 | 0.0 | 0.0 | 0.00 | 0.00 | 0.00 | 83 | 1011.9 |
| 20260902125944 | 26 | 293 | 0.0 | 0.0 | 0.00 | 0.00 | 0.00 | 83 | 1011.9 |
| 20260902125841 | 26 | 301 | 0.0 | 0.0 | 0.00 | 0.00 | 0.00 | 83 | 1011.8 |
| 20260902125511 | 26 | 272 | 0.0 | 0.0 | 0.00 | 0.00 | 0.00 | 83 | 1011.8 |
| 20260902125405 | 26 | 271 | 0.0 | 0.0 | 0.00 | 0.00 | 0.00 | 83 | 1011.8 |
| 20260902125258 | 26 | 269 | 0.0 | 0.0 | 0.00 | 0.00 | 0.00 | 84 | 1011.7 |
| 20260902124937 | 26 | 271 | 0.0 | 0.0 | 0.00 | 0.00 | 0.00 | 83 | 1011.8 |
| 20260902124832 | 26 | 271 | 0.0 | 0.0 | 0.00 | 0.00 | 0.00 | 84 | 1011.8 |
| 20260902124725 | 26 | 272 | 0.0 | 0.0 | 0.00 | 0.00 | 0.00 | 84 | 1011.8 |
| 20260902124619 | 26 | 272 | 0.0 | 0.0 | 0.00 | 0.00 | 0.00 | 84 | 1011.8 |
| 20260902124518 | 26 | 272 | 0.0 | 0.0 | 0.00 | 0.00 | 0.00 | 84 | 1011.8 |
| 20260902124415 | 26 | 272 | 0.0 | 0.0 | 0.00 | 0.00 | 0.00 | 84 | 1011.8 |
| 20260902124310 | 26 | 272 | 0.0 | 0.0 | 0.00 | 0.00 | 0.00 | 84 | 1011.7 |
| 20260902124207 | 26 | 272 | 0.0 | 0.0 | 0.00 | 0.00 | 0.00 | 84 | 1011.7 |
| 20260902124100 | 26 | 272 | 0.0 | 0.0 | 0.00 | 0.00 | 0.00 | 84 | 1011.7 |
| 20260902123957 | 25 | 273 | 0.0 | 0.0 | 0.00 | 0.00 | 0.00 | 84 | 1011.7 |
| 20260902123849 | 25 | 273 | 0.0 | 0.0 | 0.00 | 0.00 | 0.00 | 84 | 1011.7 |
| 20260902123741 | 25 | 268 | 0.0 | 0.0 | 0.00 | 0.00 | 0.00 | 84 | 1011.7 |
| 20260902123635 | 25 | 283 | 0.0 | 0.0 | 0.00 | 0.00 | 0.00 | 84 | 1011.7 |
| 20260902123533 | 25 | 284 | 0.0 | 0.0 | 0.00 | 0.00 | 0.00 | 84 | 1011.8 |
| 20260902123428 | 25 | 284 | 0.0 | 0.0 | 0.00 | 0.00 | 0.00 | 84 | 1011.8 |
| 20260902123106 | 25 | 284 | 0.0 | 0.0 | 0.00 | 0.00 | 0.00 | 85 | 1011.8 |
| 20260902123000 | 25 | 281 | 0.0 | 0.0 | 0.00 | 0.00 | 0.00 | 85 | 1011.8 |
| 20260902122853 | 25 | 281 | 0.0 | 0.0 | 0.00 | 0.00 | 0.00 | 86 | 1011.8 |
| 20260902122747 | 25 | 281 | 0.0 | 0.0 | 0.00 | 0.00 | 0.00 | 86 | 1011.8 |
| 20260902122642 | 25 | 281 | 0.0 | 0.0 | 0.00 | 0.00 | 0.00 | 86 | 1011.7 |
| 20260902122539 | 25 | 281 | 0.0 | 0.0 | 0.00 | 0.00 | 0.00 | 86 | 1011.7 |
| 20260902122212 | 25 | 281 | 0.0 | 0.0 | 0.00 | 0.00 | 0.00 | 86 | 1011.7 |
| 20260902122110 | 25 | 281 | 0.0 | 0.0 | 0.00 | 0.00 | 0.00 | 86 | 1011.7 |
| 20260902122006 | 25 | 281 | 0.0 | 0.0 | 0.00 | 0.00 | 0.00 | 86 | 1011.7 |
| 20260902121902 | 25 | 281 | 0.0 | 0.0 | 0.00 | 0.00 | 0.00 | 86 | 1011.7 |
| 20260902121800 | 25 | 281 | 0.0 | 0.0 | 0.00 | 0.00 | 0.00 | 86 | 1011.7 |
| 20260902121655 | 25 | 281 | 0.0 | 0.0 | 0.00 | 0.00 | 0.00 | 87 | 1011.7 |
| 20260902121327 | 25 | 282 | 0.0 | 0.0 | 0.00 | 0.00 | 0.00 | 87 | 1011.7 |
| 20260902121000 | 24 | 281 | 0.0 | 0.0 | 0.00 | 0.00 | 0.00 | 88 | 1011.7 |
| 20260902120856 | 24 | 281 | 0.0 | 0.0 | 0.00 | 0.00 | 0.00 | 88 | 1011.7 |
| 20260902120751 | 24 | 281 | 0.0 | 0.0 | 0.00 | 0.00 | 0.00 | 88 | 1011.7 |
| 20260902120648 | 24 | 281 | 0.0 | 0.0 | 0.00 | 0.00 | 0.00 | 88 | 1011.7 |
| 20260902120546 | 24 | 281 | 0.0 | 0.0 | 0.00 | 0.00 | 0.00 | 88 | 1011.7 |
| 20260902120440 | 24 | 281 | 0.0 | 0.0 | 0.00 | 0.00 | 0.00 | 88 | 1011.7 |
| 20260902120332 | 24 | 281 | 0.0 | 0.0 | 0.00 | 0.00 | 0.00 | 88 | 1011.7 |
| 20260902115750 | 24 | 281 | 0.0 | 0.0 | 0.00 | 0.00 | 0.00 | 88 | 1011.7 |
| 20260902115645 | 23 | 281 | 0.0 | 0.0 | 0.00 | 0.00 | 0.00 | 88 | 1011.7 |
| 20260902115539 | 23 | 281 | 0.0 | 0.0 | 0.00 | 0.00 | 0.00 | 88 | 1011.7 |
| 20260902115434 | 23 | 281 | 0.0 | 0.0 | 0.00 | 0.00 | 0.00 | 88 | 1011.6 |
| 20260902115327 | 23 | 281 | 0.0 | 0.0 | 0.00 | 0.00 | 0.00 | 88 | 1011.6 |
| 20260902115219 | 23 | 281 | 0.0 | 0.0 | 0.00 | 0.00 | 0.00 | 88 | 1011.7 |
| 20260902114852 | 23 | 281 | 0.0 | 0.0 | 0.00 | 0.00 | 0.00 | 88 | 1011.7 |
| 20260902114527 | 23 | 281 | 0.0 | 0.0 | 0.00 | 0.00 | 0.00 | 88 | 1011.6 |
| 20260902114422 | 23 | 281 | 0.0 | 0.0 | 0.00 | 0.00 | 0.00 | 88 | 1011.6 |
| 20260902113608 | 23 | 281 | 0.0 | 0.0 | 0.00 | 0.00 | 0.00 | 87 | 1011.6 |
| 20260902113506 | 23 | 281 | 0.0 | 0.0 | 0.00 | 0.00 | 0.00 | 87 | 1011.6 |
| 20260902113403 | 24 | 281 | 0.0 | 0.0 | 0.00 | 0.00 | 0.00 | 88 | 1011.6 |
| 20260902113259 | 24 | 281 | 0.0 | 0.0 | 0.00 | 0.00 | 0.00 | 87 | 1011.6 |
| 20260902113152 | 24 | 281 | 0.0 | 0.0 | 0.00 | 0.00 | 0.00 | 87 | 1011.6 |
| 20260902113048 | 24 | 281 | 0.0 | 0.0 | 0.00 | 0.00 | 0.00 | 87 | 1011.7 |
| 20260902112720 | 24 | 281 | 0.0 | 0.0 | 0.00 | 0.00 | 0.00 | 87 | 1011.7 |
| 20260902112617 | 24 | 281 | 0.0 | 0.0 | 0.00 | 0.00 | 0.00 | 87 | 1011.7 |
| 20260902112510 | 24 | 281 | 0.0 | 0.0 | 0.00 | 0.00 | 0.00 | 87 | 1011.7 |
| 20260902112405 | 24 | 281 | 0.0 | 0.0 | 0.00 | 0.00 | 0.00 | 86 | 1011.7 |
| 20260902112259 | 24 | 281 | 0.0 | 0.0 | 0.00 | 0.00 | 0.00 | 86 | 1011.7 |
| 20260902111930 | 24 | 282 | 0.0 | 0.0 | 0.00 | 0.00 | 0.00 | 86 | 1011.7 |
| 20260902111822 | 24 | 282 | 0.0 | 0.0 | 0.00 | 0.00 | 0.00 | 86 | 1011.7 |
| 20260902111453 | 24 | 282 | 0.0 | 0.0 | 0.00 | 0.00 | 0.00 | 86 | 1011.7 |
| 20260902111349 | 24 | 282 | 0.0 | 0.0 | 0.00 | 0.00 | 0.00 | 86 | 1011.7 |
| 20260902111245 | 24 | 282 | 0.0 | 0.0 | 0.00 | 0.00 | 0.00 | 86 | 1011.7 |
| 20260902110653 | 25 | 282 | 0.0 | 0.0 | 0.00 | 0.00 | 0.00 | 85 | 1011.8 |
| 20260902110549 | 25 | 282 | 0.0 | 0.0 | 0.00 | 0.00 | 0.00 | 85 | 1011.8 |
| 20260902110446 | 25 | 282 | 0.0 | 0.0 | 0.00 | 0.00 | 0.00 | 85 | 1011.8 |
| 20260902110341 | 25 | 282 | 0.0 | 0.0 | 0.00 | 0.00 | 0.00 | 85 | 1011.8 |
| 20260902110234 | 25 | 282 | 0.0 | 0.0 | 0.00 | 0.00 | 0.00 | 85 | 1011.8 |
| 20260902105909 | 25 | 280 | 0.0 | 0.0 | 0.00 | 0.00 | 0.00 | 85 | 1011.8 |
| 20260902105807 | 25 | 279 | 0.0 | 0.0 | 0.00 | 0.00 | 0.00 | 85 | 1011.8 |
| 20260902105439 | 25 | 279 | 0.0 | 0.0 | 0.00 | 0.00 | 0.00 | 85 | 1011.9 |
| 20260902105336 | 25 | 279 | 0.0 | 0.0 | 0.00 | 0.00 | 0.00 | 85 | 1012.0 |
| 20260902105232 | 25 | 282 | 0.0 | 0.0 | 0.00 | 0.00 | 0.00 | 85 | 1011.9 |
| 20260902104907 | 25 | 283 | 0.0 | 0.0 | 0.00 | 0.00 | 0.00 | 85 | 1011.9 |
| 20260902104540 | 25 | 286 | 0.0 | 4.8 | 0.00 | 0.00 | 0.00 | 85 | 1011.9 |
| 20260902104434 | 25 | 286 | 0.0 | 4.8 | 0.00 | 0.00 | 0.00 | 85 | 1011.9 |
| 20260902104330 | 25 | 257 | 0.0 | 3.2 | 0.00 | 0.00 | 0.00 | 85 | 1011.9 |
| 20260902104225 | 25 | 226 | 0.0 | 0.0 | 0.00 | 0.00 | 0.00 | 85 | 1011.9 |
| 20260902104122 | 25 | 226 | 0.0 | 0.0 | 0.00 | 0.00 | 0.00 | 85 | 1011.9 |
| 20260902103752 | 25 | 226 | 0.0 | 0.0 | 0.00 | 0.00 | 0.00 | 85 | 1011.9 |
| 20260902103646 | 25 | 215 | 0.0 | 0.0 | 0.00 | 0.00 | 0.00 | 85 | 1012.0 |
| 20260902103543 | 25 | 215 | 0.0 | 0.0 | 0.00 | 0.00 | 0.00 | 85 | 1011.9 |
| 20260902103436 | 25 | 215 | 0.0 | 0.0 | 0.00 | 0.00 | 0.00 | 85 | 1011.9 |
| 20260902103329 | 25 | 215 | 0.0 | 0.0 | 0.00 | 0.00 | 0.00 | 85 | 1011.9 |
| 20260902103223 | 25 | 215 | 0.0 | 0.0 | 0.00 | 0.00 | 0.00 | 85 | 1011.9 |
| 20260902103120 | 25 | 211 | 0.0 | 0.0 | 0.00 | 0.00 | 0.00 | 85 | 1011.8 |
| 20260902103015 | 25 | 211 | 0.0 | 0.0 | 0.00 | 0.00 | 0.00 | 85 | 1011.8 |
| 20260902102654 | 25 | 250 | 0.0 | 0.0 | 0.00 | 0.00 | 0.00 | 85 | 1011.8 |
| 20260902102327 | 25 | 263 | 0.0 | 0.0 | 0.00 | 0.00 | 0.00 | 85 | 1011.8 |
| 20260902102221 | 25 | 263 | 0.0 | 1.6 | 0.00 | 0.00 | 0.00 | 85 | 1011.8 |
| 20260902102114 | 25 | 259 | 0.0 | 1.6 | 0.00 | 0.00 | 0.00 | 85 | 1011.7 |
| 20260902101748 | 25 | 170 | 0.0 | 0.0 | 0.00 | 0.00 | 0.00 | 86 | 1011.7 |
| 20260902101642 | 25 | 157 | 0.0 | 0.0 | 0.00 | 0.00 | 0.00 | 86 | 1011.7 |
| 20260902101540 | 25 | 277 | 0.0 | 0.0 | 0.00 | 0.00 | 0.00 | 86 | 1011.7 |
| 20260902101218 | 25 | 278 | 0.0 | 3.2 | 0.00 | 0.00 | 0.00 | 86 | 1011.7 |
| 20260902101111 | 25 | 245 | 0.0 | 3.2 | 0.00 | 0.00 | 0.00 | 86 | 1011.6 |
| 20260902101007 | 25 | 254 | 0.0 | 6.4 | 0.00 | 0.00 | 0.00 | 86 | 1011.6 |
| 20260902100859 | 25 | 254 | 0.0 | 6.4 | 0.00 | 0.00 | 0.00 | 86 | 1011.6 |
| 20260902100757 | 25 | 254 | 0.0 | 4.8 | 0.00 | 0.00 | 0.00 | 86 | 1011.6 |
| 20260902100654 | 25 | 247 | 0.0 | 4.8 | 0.00 | 0.00 | 0.00 | 86 | 1011.6 |
| 20260902100553 | 25 | 247 | 0.0 | 4.8 | 0.00 | 0.00 | 0.00 | 86 | 1011.7 |
| 20260902100446 | 25 | 261 | 0.0 | 0.0 | 0.00 | 0.00 | 0.00 | 86 | 1011.6 |
| 20260902100342 | 25 | 253 | 0.0 | 0.0 | 0.00 | 0.00 | 0.00 | 86 | 1011.6 |
| 20260902100236 | 25 | 253 | 0.0 | 0.0 | 0.00 | 0.00 | 0.00 | 86 | 1011.6 |
| 20260902100132 | 25 | 254 | 0.0 | 0.0 | 0.00 | 0.00 | 0.00 | 86 | 1011.6 |
| 20260902095551 | 25 | 252 | 0.0 | 0.0 | 0.00 | 0.00 | 0.00 | 86 | 1011.6 |
| 20260902095447 | 25 | 252 | 0.0 | 0.0 | 0.00 | 0.00 | 0.00 | 86 | 1011.6 |
| 20260902095341 | 25 | 252 | 0.0 | 0.0 | 0.00 | 0.00 | 0.00 | 87 | 1011.6 |
| 20260902095016 | 25 | 248 | 0.0 | 0.0 | 0.00 | 0.00 | 0.00 | 86 | 1011.6 |
| 20260902094913 | 25 | 253 | 0.0 | 0.0 | 0.00 | 0.00 | 0.00 | 86 | 1011.5 |
| 20260902094548 | 25 | 253 | 0.0 | 0.0 | 0.00 | 0.00 | 0.00 | 86 | 1011.5 |
| 20260902094445 | 25 | 254 | 0.0 | 0.0 | 0.00 | 0.00 | 0.00 | 86 | 1011.4 |
| 20260902094340 | 25 | 254 | 0.0 | 0.0 | 0.00 | 0.00 | 0.00 | 86 | 1011.5 |
| 20260902094233 | 25 | 254 | 0.0 | 0.0 | 0.00 | 0.00 | 0.00 | 86 | 1011.5 |
| 20260902094131 | 25 | 254 | 0.0 | 0.0 | 0.00 | 0.00 | 0.00 | 86 | 1011.5 |
| 20260902093803 | 25 | 254 | 0.0 | 0.0 | 0.00 | 0.00 | 0.00 | 86 | 1011.4 |
| 20260902093656 | 25 | 254 | 0.0 | 0.0 | 0.00 | 0.00 | 0.00 | 86 | 1011.5 |
| 20260902093333 | 25 | 254 | 0.0 | 0.0 | 0.00 | 0.00 | 0.00 | 85 | 1011.4 |
| 20260902093226 | 25 | 254 | 0.0 | 0.0 | 0.00 | 0.00 | 0.00 | 85 | 1011.5 |
| 20260902093120 | 25 | 254 | 0.0 | 0.0 | 0.00 | 0.00 | 0.00 | 85 | 1011.4 |
| 20260902093017 | 25 | 254 | 0.0 | 0.0 | 0.00 | 0.00 | 0.00 | 85 | 1011.4 |
| 20260902092914 | 25 | 254 | 0.0 | 0.0 | 0.00 | 0.00 | 0.00 | 85 | 1011.5 |
| 20260902092806 | 25 | 254 | 0.0 | 0.0 | 0.00 | 0.00 | 0.00 | 85 | 1011.5 |
| 20260902092437 | 25 | 256 | 0.0 | 0.0 | 0.00 | 0.00 | 0.00 | 85 | 1011.4 |
| 20260902092331 | 25 | 256 | 0.0 | 0.0 | 0.00 | 0.00 | 0.00 | 85 | 1011.5 |
| 20260902092230 | 25 | 255 | 0.0 | 0.0 | 0.00 | 0.00 | 0.00 | 85 | 1011.4 |
| 20260902092124 | 25 | 255 | 0.0 | 0.0 | 0.00 | 0.00 | 0.00 | 85 | 1011.5 |
| 20260902092020 | 25 | 255 | 0.0 | 0.0 | 0.00 | 0.00 | 0.00 | 85 | 1011.5 |
| 20260902091918 | 25 | 254 | 0.0 | 0.0 | 0.00 | 0.00 | 0.00 | 85 | 1011.5 |
| 20260902091815 | 25 | 254 | 0.0 | 0.0 | 0.00 | 0.00 | 0.00 | 85 | 1011.5 |
| 20260902091454 | 25 | 254 | 0.0 | 0.0 | 0.00 | 0.00 | 0.00 | 86 | 1011.5 |
| 20260902091346 | 25 | 254 | 0.0 | 0.0 | 0.00 | 0.00 | 0.00 | 86 | 1011.5 |
| 20260902091245 | 25 | 280 | 0.0 | 0.0 | 0.00 | 0.00 | 0.00 | 85 | 1011.4 |
| 20260902090922 | 25 | 259 | 0.0 | 0.0 | 0.00 | 0.00 | 0.00 | 85 | 1011.4 |
| 20260902090818 | 25 | 259 | 0.0 | 0.0 | 0.00 | 0.00 | 0.00 | 85 | 1011.3 |
| 20260902090714 | 25 | 259 | 0.0 | 0.0 | 0.00 | 0.00 | 0.00 | 85 | 1011.4 |
| 20260902090608 | 25 | 259 | 0.0 | 0.0 | 0.00 | 0.00 | 0.00 | 86 | 1011.3 |
| 20260902085757 | 25 | 248 | 0.0 | 0.0 | 0.00 | 0.00 | 0.00 | 86 | 1011.3 |
| 20260902085651 | 25 | 248 | 0.0 | 0.0 | 0.00 | 0.00 | 0.00 | 86 | 1011.2 |
| 20260902085547 | 25 | 248 | 0.0 | 0.0 | 0.00 | 0.00 | 0.00 | 86 | 1011.2 |
| 20260902085442 | 25 | 248 | 0.0 | 0.0 | 0.00 | 0.00 | 0.00 | 86 | 1011.2 |
| 20260902085336 | 25 | 248 | 0.0 | 0.0 | 0.00 | 0.00 | 0.00 | 86 | 1011.2 |
| 20260902085010 | 25 | 262 | 0.0 | 3.2 | 0.00 | 0.00 | 0.00 | 86 | 1011.2 |
| 20260902084905 | 25 | 262 | 0.0 | 3.2 | 0.00 | 0.00 | 0.00 | 86 | 1011.2 |
| 20260902084801 | 26 | 263 | 0.0 | 0.0 | 0.00 | 0.00 | 0.00 | 86 | 1011.2 |
| 20260902084655 | 26 | 265 | 0.0 | 0.0 | 0.00 | 0.00 | 0.00 | 86 | 1011.2 |
| 20260902084326 | 26 | 259 | 0.0 | 0.0 | 0.00 | 0.00 | 0.00 | 85 | 1011.2 |
| 20260902084220 | 26 | 259 | 0.0 | 0.0 | 0.00 | 0.00 | 0.00 | 85 | 1011.2 |
| 20260902084117 | 26 | 262 | 0.0 | 0.0 | 0.00 | 0.00 | 0.00 | 85 | 1011.1 |
| 20260902083752 | 26 | 270 | 0.0 | 0.0 | 0.00 | 0.00 | 0.00 | 85 | 1011.2 |
| 20260902083427 | 26 | 269 | 0.0 | 0.0 | 0.00 | 0.00 | 0.00 | 85 | 1011.2 |
| 20260902083323 | 26 | 266 | 0.0 | 0.0 | 0.00 | 0.00 | 0.00 | 85 | 1011.3 |
| 20260902083000 | 26 | 252 | 0.0 | 0.0 | 0.00 | 0.00 | 0.00 | 85 | 1011.3 |
| 20260902082853 | 26 | 252 | 0.0 | 0.0 | 0.00 | 0.00 | 0.00 | 85 | 1011.2 |
| 20260902082750 | 26 | 252 | 0.0 | 0.0 | 0.00 | 0.00 | 0.00 | 85 | 1011.3 |
| 20260902082644 | 26 | 282 | 0.0 | 0.0 | 0.00 | 0.00 | 0.00 | 85 | 1011.3 |
| 20260902082539 | 26 | 287 | 0.0 | 0.0 | 0.00 | 0.00 | 0.00 | 85 | 1011.3 |
| 20260902082433 | 26 | 272 | 0.0 | 0.0 | 0.00 | 0.00 | 0.00 | 85 | 1011.2 |
| 20260902082331 | 26 | 272 | 0.0 | 0.0 | 0.00 | 0.00 | 0.00 | 85 | 1011.2 |
| 20260902082225 | 26 | 273 | 0.0 | 0.0 | 0.00 | 0.00 | 0.00 | 85 | 1011.2 |
| 20260902081639 | 26 | 284 | 0.0 | 6.4 | 0.00 | 0.00 | 0.00 | 85 | 1011.1 |
| 20260902081532 | 26 | 284 | 0.0 | 6.4 | 0.00 | 0.00 | 0.00 | 85 | 1011.2 |
| 20260902081210 | 26 | 248 | 0.0 | 0.0 | 0.00 | 0.00 | 0.00 | 85 | 1011.2 |
| 20260902080845 | 26 | 256 | 0.0 | 8.0 | 0.00 | 0.00 | 0.00 | 85 | 1011.1 |
| 20260902080738 | 26 | 252 | 0.0 | 8.0 | 0.00 | 0.00 | 0.00 | 85 | 1011.1 |
| 20260902080635 | 26 | 279 | 0.0 | 8.0 | 0.00 | 0.00 | 0.00 | 85 | 1011.1 |
| 20260902080530 | 26 | 277 | 0.0 | 6.4 | 0.00 | 0.00 | 0.00 | 85 | 1011.1 |
| 20260902080425 | 26 | 270 | 0.0 | 0.0 | 0.00 | 0.00 | 0.00 | 85 | 1011.0 |
| 20260902080321 | 26 | 284 | 0.0 | 0.0 | 0.00 | 0.00 | 0.00 | 85 | 1011.1 |
| 20260902080216 | 26 | 286 | 0.0 | 0.0 | 0.00 | 0.00 | 0.00 | 85 | 1011.1 |
| 20260902080113 | 26 | 258 | 0.0 | 0.0 | 0.00 | 0.00 | 0.00 | 85 | 1011.1 |
| 20260902075749 | 26 | 263 | 0.0 | 0.0 | 0.00 | 0.00 | 0.00 | 86 | 1011.2 |
| 20260902075645 | 26 | 269 | 0.0 | 0.0 | 0.00 | 0.00 | 0.00 | 86 | 1011.2 |
| 20260902075539 | 26 | 269 | 0.0 | 0.0 | 0.00 | 0.00 | 0.00 | 86 | 1011.2 |
| 20260902075212 | 26 | 283 | 1.6 | 12.9 | 0.00 | 0.00 | 0.00 | 86 | 1011.2 |
| 20260902075105 | 26 | 278 | 1.6 | 12.9 | 0.00 | 0.00 | 0.00 | 87 | 1011.2 |
| 20260902074959 | 26 | 262 | 1.6 | 12.9 | 0.00 | 0.00 | 0.00 | 87 | 1011.2 |
| 20260902074855 | 26 | 264 | 1.6 | 9.7 | 0.00 | 0.00 | 0.00 | 87 | 1011.2 |
| 20260902074751 | 26 | 289 | 1.6 | 9.7 | 0.00 | 0.00 | 0.00 | 88 | 1011.2 |
| 20260902074647 | 26 | 260 | 0.0 | 9.7 | 0.00 | 0.00 | 0.00 | 88 | 1011.2 |
| 20260902074539 | 25 | 244 | 0.0 | 9.7 | 0.00 | 0.00 | 0.00 | 88 | 1011.1 |
| 20260902074434 | 25 | 281 | 0.0 | 9.7 | 0.00 | 0.00 | 0.00 | 89 | 1011.1 |
| 20260902074328 | 25 | 290 | 0.0 | 9.7 | 0.00 | 0.00 | 0.00 | 89 | 1011.2 |
| 20260902074001 | 25 | 266 | 0.0 | 6.4 | 0.00 | 0.00 | 0.00 | 90 | 1011.1 |
| 20260902073858 | 25 | 288 | 0.0 | 0.0 | 0.00 | 0.00 | 0.00 | 91 | 1011.1 |
| 20260902073753 | 25 | 314 | 0.0 | 0.0 | 0.00 | 0.00 | 0.00 | 91 | 1011.1 |
| 20260902073650 | 25 | 259 | 0.0 | 0.0 | 0.00 | 0.00 | 0.00 | 91 | 1011.1 |
| 20260902073323 | 25 | 254 | 0.0 | 8.0 | 0.00 | 0.00 | 0.00 | 92 | 1011.1 |
| 20260902073218 | 25 | 244 | 0.0 | 0.0 | 0.00 | 0.00 | 0.00 | 92 | 1011.1 |
| 20260902073113 | 25 | 268 | 0.0 | 0.0 | 0.00 | 0.00 | 0.00 | 92 | 1011.1 |
| 20260902073009 | 25 | 268 | 0.0 | 0.0 | 0.00 | 0.00 | 0.00 | 93 | 1011.1 |
| 20260902072904 | 25 | 279 | 0.0 | 0.0 | 0.00 | 0.00 | 0.00 | 93 | 1011.1 |
| 20260902072758 | 25 | 269 | 0.0 | 0.0 | 0.00 | 0.00 | 0.00 | 93 | 1011.1 |
| 20260902072653 | 25 | 269 | 0.0 | 0.0 | 0.00 | 0.00 | 0.00 | 93 | 1011.1 |
| 20260902072547 | 25 | 261 | 0.0 | 0.0 | 0.00 | 0.00 | 0.00 | 93 | 1011.1 |
| 20260902072445 | 25 | 261 | 0.0 | 0.0 | 0.00 | 0.00 | 0.00 | 94 | 1011.1 |
| 20260902072339 | 25 | 252 | 0.0 | 0.0 | 0.00 | 0.00 | 0.00 | 94 | 1011.1 |
| 20260902072233 | 25 | 216 | 0.0 | 0.0 | 0.00 | 0.00 | 0.00 | 94 | 1011.1 |
| 20260902072130 | 24 | 216 | 0.0 | 0.0 | 0.00 | 0.00 | 0.00 | 94 | 1011.1 |
| 20260902072025 | 24 | 177 | 0.0 | 0.0 | 0.00 | 0.00 | 0.00 | 94 | 1011.1 |
| 20260902071923 | 24 | 249 | 0.0 | 0.0 | 0.00 | 0.00 | 0.00 | 94 | 1011.1 |
| 20260902071819 | 24 | 250 | 0.0 | 0.0 | 0.00 | 0.00 | 0.00 | 94 | 1011.1 |
| 20260902071011 | 23 | 267 | 0.0 | 0.0 | 0.00 | 0.00 | 0.00 | 95 | 1011.1 |
| 20260902070908 | 23 | 266 | 0.0 | 0.0 | 0.00 | 0.00 | 0.00 | 95 | 1011.0 |
| 20260902070804 | 23 | 267 | 0.0 | 0.0 | 0.00 | 0.00 | 0.00 | 95 | 1011.0 |
| 20260902070439 | 23 | 250 | 0.0 | 0.0 | 0.00 | 0.00 | 0.00 | 95 | 1011.0 |
| 20260902070117 | 23 | 250 | 0.0 | 0.0 | 0.00 | 0.00 | 0.00 | 94 | 1011.1 |
| 20260902070013 | 23 | 263 | 0.0 | 0.0 | 0.00 | 0.00 | 0.00 | 95 | 1011.1 |
| 20260902065906 | 23 | 269 | 0.0 | 0.0 | 0.00 | 0.00 | 0.00 | 94 | 1011.1 |
| 20260902065759 | 23 | 250 | 0.0 | 0.0 | 0.00 | 0.00 | 0.00 | 94 | 1011.1 |
| 20260902065652 | 23 | 250 | 0.0 | 0.0 | 0.00 | 0.00 | 0.00 | 94 | 1011.1 |
| 20260902065330 | 23 | 250 | 0.0 | 0.0 | 0.00 | 0.00 | 0.00 | 94 | 1011.0 |
| 20260902065008 | 22 | 250 | 0.0 | 0.0 | 0.00 | 0.00 | 0.00 | 94 | 1011.0 |
| 20260902064639 | 22 | 251 | 0.0 | 0.0 | 0.00 | 0.00 | 0.00 | 94 | 1011.0 |
| 20260902064057 | 22 | 251 | 0.0 | 0.0 | 0.00 | 0.00 | 0.00 | 94 | 1011.1 |
| 20260902063954 | 22 | 251 | 0.0 | 0.0 | 0.00 | 0.00 | 0.00 | 94 | 1011.1 |
| 20260902063850 | 22 | 251 | 0.0 | 0.0 | 0.00 | 0.00 | 0.00 | 94 | 1011.1 |
| 20260902063744 | 22 | 251 | 0.0 | 0.0 | 0.00 | 0.00 | 0.00 | 93 | 1011.1 |
| 20260902063419 | 22 | 251 | 0.0 | 0.0 | 0.00 | 0.00 | 0.00 | 93 | 1011.1 |
| 20260902063312 | 22 | 251 | 0.0 | 0.0 | 0.00 | 0.00 | 0.00 | 93 | 1011.1 |
| 20260902063205 | 22 | 251 | 0.0 | 0.0 | 0.00 | 0.00 | 0.00 | 93 | 1011.1 |
| 20260902063102 | 22 | 251 | 0.0 | 0.0 | 0.00 | 0.00 | 0.00 | 93 | 1011.1 |
| 20260902062958 | 22 | 251 | 0.0 | 0.0 | 0.00 | 0.00 | 0.00 | 93 | 1011.1 |
| 20260902062636 | 22 | 251 | 0.0 | 0.0 | 0.00 | 0.00 | 0.00 | 93 | 1011.1 |
| 20260902062311 | 22 | 251 | 0.0 | 0.0 | 0.00 | 0.00 | 0.00 | 93 | 1011.1 |
| 20260902062206 | 22 | 251 | 0.0 | 0.0 | 0.00 | 0.00 | 0.00 | 93 | 1011.1 |
| 20260902061842 | 22 | 251 | 0.0 | 0.0 | 0.00 | 0.00 | 0.00 | 93 | 1011.2 |
| 20260902061735 | 22 | 251 | 0.0 | 0.0 | 0.00 | 0.00 | 0.00 | 93 | 1011.1 |
| 20260902061410 | 22 | 251 | 0.0 | 0.0 | 0.00 | 0.00 | 0.00 | 93 | 1011.2 |
| 20260902061302 | 22 | 251 | 0.0 | 0.0 | 0.00 | 0.00 | 0.00 | 93 | 1011.1 |
| 20260902061155 | 22 | 251 | 0.0 | 0.0 | 0.00 | 0.00 | 0.00 | 93 | 1011.2 |
| 20260902061050 | 22 | 251 | 0.0 | 0.0 | 0.00 | 0.00 | 0.00 | 93 | 1011.2 |
| 20260902060726 | 22 | 251 | 0.0 | 0.0 | 0.00 | 0.00 | 0.00 | 93 | 1011.2 |
| 20260902060619 | 22 | 251 | 0.0 | 0.0 | 0.00 | 0.00 | 0.00 | 93 | 1011.3 |
| 20260902060515 | 22 | 251 | 0.0 | 0.0 | 0.00 | 0.00 | 0.00 | 93 | 1011.3 |
| 20260902060409 | 22 | 251 | 0.0 | 0.0 | 0.00 | 0.00 | 0.00 | 93 | 1011.3 |
| 20260902060305 | 22 | 251 | 0.0 | 0.0 | 0.00 | 0.00 | 0.00 | 93 | 1011.3 |
| 20260902060200 | 22 | 251 | 0.0 | 0.0 | 0.00 | 0.00 | 0.00 | 93 | 1011.3 |
| 20260902060053 | 22 | 251 | 0.0 | 0.0 | 0.00 | 0.00 | 0.00 | 93 | 1011.4 |
| 20260902055949 | 22 | 251 | 0.0 | 0.0 | 0.00 | 0.00 | 0.00 | 93 | 1011.3 |
| 20260902055843 | 22 | 251 | 0.0 | 0.0 | 0.00 | 0.00 | 0.00 | 93 | 1011.4 |
| 20260902055737 | 22 | 251 | 0.0 | 0.0 | 0.00 | 0.00 | 0.00 | 93 | 1011.3 |
| 20260902055631 | 22 | 251 | 0.0 | 0.0 | 0.00 | 0.00 | 0.00 | 93 | 1011.3 |
| 20260902055308 | 22 | 251 | 0.0 | 0.0 | 0.00 | 0.00 | 0.00 | 93 | 1011.4 |
| 20260902054723 | 22 | 251 | 0.0 | 0.0 | 0.00 | 0.00 | 0.00 | 93 | 1011.4 |
| 20260902054616 | 22 | 251 | 0.0 | 0.0 | 0.00 | 0.00 | 0.00 | 93 | 1011.4 |
| 20260902054512 | 22 | 251 | 0.0 | 0.0 | 0.00 | 0.00 | 0.00 | 93 | 1011.5 |
| 20260902054148 | 22 | 251 | 0.0 | 0.0 | 0.00 | 0.00 | 0.00 | 93 | 1011.5 |
| 20260902054041 | 22 | 251 | 0.0 | 0.0 | 0.00 | 0.00 | 0.00 | 93 | 1011.5 |
| 20260902053938 | 22 | 251 | 0.0 | 0.0 | 0.00 | 0.00 | 0.00 | 93 | 1011.6 |
| 20260902053833 | 22 | 251 | 0.0 | 0.0 | 0.00 | 0.00 | 0.00 | 93 | 1011.6 |
| 20260902053728 | 22 | 251 | 0.0 | 0.0 | 0.00 | 0.00 | 0.00 | 93 | 1011.6 |
| 20260902053626 | 22 | 251 | 0.0 | 0.0 | 0.00 | 0.00 | 0.00 | 93 | 1011.6 |
| 20260902053519 | 22 | 251 | 0.0 | 0.0 | 0.00 | 0.00 | 0.00 | 93 | 1011.6 |
| 20260902053417 | 22 | 251 | 0.0 | 0.0 | 0.00 | 0.00 | 0.00 | 93 | 1011.6 |
| 20260902053311 | 22 | 251 | 0.0 | 0.0 | 0.00 | 0.00 | 0.00 | 93 | 1011.6 |
| 20260902053208 | 22 | 251 | 0.0 | 0.0 | 0.00 | 0.00 | 0.00 | 93 | 1011.6 |
| 20260902053105 | 22 | 251 | 0.0 | 0.0 | 0.00 | 0.00 | 0.00 | 93 | 1011.6 |
| 20260902052742 | 22 | 251 | 0.0 | 0.0 | 0.00 | 0.00 | 0.00 | 93 | 1011.7 |
| 20260902052637 | 22 | 251 | 0.0 | 0.0 | 0.00 | 0.00 | 0.00 | 93 | 1011.7 |
| 20260902052310 | 22 | 251 | 0.0 | 0.0 | 0.00 | 0.00 | 0.00 | 93 | 1011.7 |
| 20260902052208 | 22 | 251 | 0.0 | 0.0 | 0.00 | 0.00 | 0.00 | 93 | 1011.7 |
| 20260902052104 | 22 | 251 | 0.0 | 0.0 | 0.00 | 0.00 | 0.00 | 93 | 1011.7 |
| 20260902051957 | 22 | 251 | 0.0 | 0.0 | 0.00 | 0.00 | 0.00 | 92 | 1011.8 |
| 20260902051635 | 22 | 251 | 0.0 | 0.0 | 0.00 | 0.00 | 0.00 | 92 | 1011.7 |
| 20260902051533 | 22 | 251 | 0.0 | 0.0 | 0.00 | 0.00 | 0.00 | 92 | 1011.7 |
| 20260902051431 | 22 | 251 | 0.0 | 0.0 | 0.00 | 0.00 | 0.00 | 92 | 1011.7 |
| 20260902051329 | 22 | 251 | 0.0 | 0.0 | 0.00 | 0.00 | 0.00 | 92 | 1011.7 |
| 20260902051225 | 22 | 251 | 0.0 | 0.0 | 0.00 | 0.00 | 0.00 | 92 | 1011.6 |
| 20260902051122 | 22 | 251 | 0.0 | 0.0 | 0.00 | 0.00 | 0.00 | 92 | 1011.6 |
| 20260902050757 | 22 | 251 | 0.0 | 0.0 | 0.00 | 0.00 | 0.00 | 92 | 1011.7 |
| 20260902050655 | 22 | 251 | 0.0 | 0.0 | 0.00 | 0.00 | 0.00 | 92 | 1011.6 |
| 20260902050550 | 22 | 251 | 0.0 | 0.0 | 0.00 | 0.00 | 0.00 | 92 | 1011.6 |
| 20260902050447 | 22 | 251 | 0.0 | 0.0 | 0.00 | 0.00 | 0.00 | 92 | 1011.6 |
| 20260902050122 | 22 | 251 | 0.0 | 0.0 | 0.00 | 0.00 | 0.00 | 92 | 1011.6 |
| 20260902050017 | 22 | 251 | 0.0 | 0.0 | 0.00 | 0.00 | 0.00 | 92 | 1011.5 |
| 20260902045648 | 22 | 251 | 0.0 | 0.0 | 0.00 | 0.00 | 0.00 | 92 | 1011.5 |
| 20260902045540 | 22 | 251 | 0.0 | 0.0 | 0.00 | 0.00 | 0.00 | 92 | 1011.5 |
| 20260902045433 | 22 | 251 | 0.0 | 0.0 | 0.00 | 0.00 | 0.00 | 92 | 1011.5 |
| 20260902045328 | 22 | 251 | 0.0 | 0.0 | 0.00 | 0.00 | 0.00 | 92 | 1011.4 |
| 20260902045226 | 22 | 251 | 0.0 | 0.0 | 0.00 | 0.00 | 0.00 | 92 | 1011.5 |
| 20260902045118 | 22 | 251 | 0.0 | 0.0 | 0.00 | 0.00 | 0.00 | 92 | 1011.4 |
| 20260902045011 | 22 | 251 | 0.0 | 0.0 | 0.00 | 0.00 | 0.00 | 92 | 1011.5 |
| 20260902044649 | 22 | 251 | 0.0 | 0.0 | 0.00 | 0.00 | 0.00 | 92 | 1011.5 |
| 20260902044547 | 22 | 251 | 0.0 | 0.0 | 0.00 | 0.00 | 0.00 | 92 | 1011.5 |
| 20260902044442 | 22 | 251 | 0.0 | 0.0 | 0.00 | 0.00 | 0.00 | 92 | 1011.5 |
| 20260902044114 | 22 | 251 | 0.0 | 0.0 | 0.00 | 0.00 | 0.00 | 92 | 1011.5 |